GFSGL_prec_precacc24_021.txt.gz
Total_Precipitation_Accumulation
0.00 0.00 0.00 0.00 0.00 0.00 0.00 0.00 0.00 0.00 0.00 0.00 0.02 0.04 0.03 0.05 0.08 0.07 0.04 0.03 0.03 0.02 0.01 0.01 0.01 0.01 0.01 0.01 0.01 0.01 0.02 0.03 0.01 0.00 0.00 0.00 0.00 0.00 0.00 0.00 0.01 0.02 0.02
0.00 0.00 0.00 0.00 0.00 0.00 0.00 0.00 0.00 0.00 0.01 0.03 0.05 0.04 0.06 0.08 0.06 0.05 0.02 0.01 0.02 0.02 0.01 0.01 0.01 0.00 0.00 0.00 0.00 0.00 0.00 0.00 0.00 0.00 0.00 0.00 0.00 0.00 0.00 0.00 0.00 0.00 0.00
0.00 0.00 0.00 0.00 0.00 0.00 0.00 0.00 0.01 0.02 0.03 0.04 0.04 0.05 0.05 0.03 0.02 0.01 0.01 0.01 0.00 0.00 0.00 0.00 0.00 0.00 0.00 0.00 0.00 0.00 0.00 0.00 0.00 0.00 0.00 0.00 0.00 0.00 0.00 0.00 0.00 0.00 0.00
0.00 0.00 0.00 0.00 0.00 0.01 0.00 0.00 0.00 0.01 0.01 0.02 0.01 0.02 0.01 0.00 0.00 0.00 0.00 0.00 0.00 0.00 0.00 0.00 0.00 0.00 0.00 0.00 0.00 0.00 0.00 0.00 0.00 0.00 0.00 0.00 0.00 0.00 0.00 0.00 0.00 0.00 0.00
0.00 0.00 0.00 0.00 0.00 0.00 0.00 0.00 0.00 0.01 0.01 0.01 0.01 0.00 0.00 0.00 0.00 0.00 0.00 0.00 0.00 0.00 0.00 0.00 0.00 0.00 0.00 0.00 0.00 0.00 0.00 0.00 0.00 0.00 0.00 0.00 0.00 0.00 0.00 0.00 0.00 0.00 0.00
0.00 0.00 0.01 0.04 0.07 0.10 0.12 0.09 0.07 0.03 0.02 0.00 0.00 0.00 0.00 0.00 0.00 0.00 0.00 0.00 0.00 0.00 0.00 0.00 0.00 0.00 0.00 0.00 0.00 0.00 0.00 0.01 0.01 0.01 0.01 0.00 0.00 0.00 0.00 0.00 0.00 0.00 0.01
0.00 0.00 0.02 0.05 0.08 0.07 0.05 0.07 0.04 0.00 0.00 0.00 0.00 0.00 0.00 0.00 0.00 0.00 0.00 0.00 0.00 0.00 0.00 0.00 0.00 0.00 0.00 0.00 0.00 0.00 0.00 0.00 0.01 0.02 0.03 0.02 0.01 0.00 0.01 0.02 0.02 0.02 0.01
0.00 0.00 0.00 0.01 0.02 0.02 0.04 0.05 0.02 0.00 0.00 0.00 0.00 0.00 0.00 0.00 0.00 0.00 0.00 0.00 0.00 0.00 0.00 0.00 0.00 0.00 0.00 0.00 0.02 0.02 0.02 0.02 0.01 0.02 0.04 0.03 0.01 0.01 0.02 0.03 0.04 0.07 0.04
0.00 0.00 0.00 0.01 0.03 0.02 0.04 0.09 0.04 0.00 0.00 0.00 0.00 0.00 0.00 0.00 0.00 0.00 0.00 0.01 0.00 0.00 0.00 0.01 0.01 0.01 0.01 0.02 0.08 0.10 0.05 0.02 0.01 0.02 0.02 0.02 0.02 0.02 0.02 0.07 0.13 0.14 0.11
0.00 0.00 0.00 0.01 0.03 0.04 0.06 0.02 0.00 0.00 0.00 0.00 0.00 0.00 0.00 0.00 0.01 0.01 0.01 0.01 0.03 0.02 0.02 0.01 0.01 0.02 0.08 0.11 0.16 0.17 0.15 0.04 0.02 0.03 0.02 0.02 0.02 0.03 0.02 0.10 0.15 0.17 0.10
0.00 0.00 0.01 0.02 0.04 0.04 0.02 0.00 0.00 0.00 0.00 0.00 0.01 0.01 0.01 0.01 0.01 0.01 0.01 0.02 0.06 0.08 0.04 0.03 0.04 0.19 0.15 0.08 0.07 0.11 0.08 0.06 0.05 0.05 0.03 0.03 0.02 0.02 0.03 0.05 0.09 0.16 0.16
0.01 0.01 0.02 0.04 0.04 0.01 0.00 0.00 0.00 0.00 0.00 0.00 0.01 0.01 0.01 0.01 0.01 0.00 0.01 0.01 0.04 0.14 0.09 0.14 0.20 0.10 0.07 0.03 0.03 0.04 0.05 0.05 0.07 0.09 0.10 0.07 0.07 0.06 0.05 0.06 0.08 0.09 0.08
0.02 0.03 0.03 0.02 0.00 0.00 0.00 0.00 0.00 0.00 0.00 0.01 0.00 0.01 0.01 0.00 0.00 0.00 0.01 0.02 0.03 0.09 0.20 0.17 0.11 0.10 0.04 0.03 0.07 0.07 0.06 0.12 0.16 0.14 0.10 0.07 0.07 0.07 0.09 0.09 0.07 0.07 0.10
0.01 0.00 0.00 0.00 0.00 0.00 0.00 0.00 0.00 0.00 0.00 0.00 0.01 0.01 0.01 0.00 0.01 0.02 0.05 0.04 0.05 0.14 0.11 0.13 0.15 0.07 0.06 0.10 0.11 0.08 0.12 0.14 0.11 0.13 0.09 0.06 0.07 0.08 0.11 0.12 0.18 0.13 0.19
0.00 0.00 0.00 0.00 0.00 0.00 0.00 0.00 0.00 0.00 0.00 0.00 0.00 0.02 0.04 0.04 0.03 0.10 0.12 0.15 0.22 0.15 0.13 0.15 0.10 0.09 0.08 0.08 0.06 0.05 0.07 0.06 0.07 0.09 0.11 0.08 0.06 0.06 0.07 0.10 0.12 0.13 0.17
0.00 0.00 0.00 0.00 0.00 0.00 0.00 0.00 0.00 0.00 0.00 0.00 0.00 0.01 0.01 0.03 0.06 0.07 0.10 0.15 0.16 0.11 0.14 0.13 0.14 0.13 0.12 0.10 0.08 0.05 0.04 0.05 0.04 0.07 0.07 0.06 0.05 0.05 0.06 0.07 0.07 0.08 0.09
0.00 0.00 0.00 0.00 0.00 0.00 0.00 0.00 0.01 0.00 0.00 0.00 0.00 0.00 0.01 0.03 0.06 0.08 0.10 0.13 0.14 0.10 0.12 0.13 0.14 0.13 0.10 0.05 0.05 0.06 0.07 0.08 0.05 0.07 0.07 0.07 0.07 0.07 0.09 0.07 0.08 0.11 0.14
0.00 0.00 0.00 0.00 0.00 0.00 0.00 0.01 0.01 0.01 0.01 0.01 0.01 0.00 0.00 0.03 0.05 0.07 0.08 0.08 0.10 0.10 0.12 0.13 0.12 0.10 0.06 0.04 0.03 0.04 0.04 0.05 0.03 0.04 0.06 0.07 0.07 0.07 0.08 0.07 0.09 0.10 0.11
0.00 0.00 0.00 0.01 0.01 0.01 0.01 0.01 0.01 0.01 0.01 0.01 0.01 0.00 0.00 0.02 0.04 0.06 0.06 0.08 0.10 0.11 0.11 0.10 0.10 0.07 0.05 0.04 0.04 0.04 0.04 0.04 0.03 0.03 0.04 0.05 0.06 0.06 0.05 0.04 0.04 0.04 0.03
0.00 0.00 0.00 0.00 0.01 0.01 0.01 0.01 0.01 0.01 0.01 0.01 0.01 0.01 0.01 0.01 0.02 0.03 0.05 0.07 0.07 0.08 0.08 0.07 0.07 0.06 0.05 0.04 0.03 0.02 0.02 0.02 0.02 0.02 0.03 0.04 0.05 0.05 0.05 0.04 0.03 0.03 0.02
0.00 0.00 0.00 0.00 0.01 0.01 0.01 0.01 0.01 0.01 0.01 0.01 0.01 0.01 0.01 0.02 0.04 0.04 0.04 0.04 0.05 0.05 0.05 0.04 0.04 0.03 0.02 0.02 0.01 0.01 0.02 0.02 0.02 0.02 0.02 0.03 0.03 0.03 0.03 0.04 0.02 0.02 0.02
0.01 0.01 0.01 0.02 0.01 0.01 0.01 0.01 0.01 0.02 0.02 0.02 0.01 0.01 0.01 0.02 0.03 0.03 0.03 0.03 0.03 0.02 0.02 0.01 0.01 0.01 0.02 0.02 0.02 0.02 0.01 0.01 0.01 0.01 0.01 0.01 0.01 0.02 0.02 0.02 0.02 0.02 0.02
0.02 0.02 0.02 0.01 0.02 0.02 0.02 0.02 0.02 0.02 0.02 0.02 0.01 0.01 0.01 0.02 0.03 0.03 0.03 0.02 0.01 0.00 0.00 0.00 0.00 0.00 0.00 0.00 0.01 0.01 0.01 0.01 0.01 0.01 0.01 0.01 0.01 0.01 0.01 0.01 0.01 0.01 0.01
0.02 0.02 0.03 0.03 0.03 0.02 0.02 0.02 0.02 0.02 0.02 0.02 0.02 0.02 0.02 0.02 0.03 0.03 0.03 0.02 0.00 0.00 0.00 0.00 0.00 0.00 0.00 0.00 0.00 0.00 0.00 0.00 0.00 0.00 0.00 0.01 0.00 0.00 0.00 0.01 0.01 0.01 0.01
0.03 0.03 0.04 0.04 0.04 0.04 0.03 0.02 0.02 0.03 0.03 0.03 0.03 0.03 0.02 0.01 0.01 0.02 0.02 0.02 0.01 0.00 0.00 0.00 0.00 0.00 0.00 0.00 0.00 0.00 0.00 0.00 0.00 0.00 0.00 0.00 0.00 0.00 0.00 0.00 0.00 0.00 0.00
0.03 0.04 0.04 0.04 0.04 0.04 0.04 0.03 0.02 0.02 0.03 0.03 0.03 0.02 0.02 0.01 0.01 0.01 0.01 0.01 0.00 0.00 0.00 0.00 0.00 0.00 0.00 0.00 0.00 0.00 0.00 0.00 0.00 0.00 0.00 0.00 0.00 0.00 0.00 0.00 0.00 0.00 0.00

GFSGL_prec_precacc24_027.txt.gz
Total_Precipitation_Accumulation
0.00 0.00 0.00 0.00 0.00 0.00 0.00 0.00 0.00 0.00 0.00 0.00 0.02 0.03 0.03 0.05 0.08 0.07 0.04 0.03 0.03 0.02 0.01 0.01 0.01 0.01 0.01 0.01 0.01 0.02 0.03 0.04 0.03 0.00 0.00 0.00 0.00 0.00 0.00 0.00 0.01 0.03 0.04
0.00 0.00 0.00 0.00 0.00 0.00 0.00 0.00 0.00 0.00 0.01 0.04 0.05 0.05 0.07 0.08 0.06 0.05 0.02 0.01 0.02 0.02 0.01 0.01 0.01 0.00 0.00 0.00 0.00 0.00 0.00 0.00 0.00 0.00 0.00 0.00 0.00 0.00 0.00 0.00 0.00 0.00 0.00
0.00 0.00 0.00 0.00 0.00 0.00 0.00 0.00 0.01 0.02 0.04 0.07 0.05 0.05 0.05 0.03 0.02 0.01 0.01 0.01 0.00 0.00 0.00 0.00 0.00 0.00 0.00 0.00 0.00 0.00 0.00 0.00 0.00 0.00 0.00 0.00 0.00 0.00 0.00 0.00 0.00 0.00 0.00
0.00 0.00 0.00 0.00 0.00 0.01 0.00 0.00 0.01 0.05 0.07 0.04 0.02 0.02 0.01 0.00 0.00 0.00 0.00 0.00 0.00 0.00 0.00 0.00 0.00 0.00 0.00 0.00 0.00 0.00 0.00 0.00 0.00 0.00 0.00 0.00 0.00 0.00 0.00 0.00 0.00 0.00 0.00
0.00 0.00 0.00 0.00 0.00 0.00 0.00 0.01 0.03 0.05 0.02 0.02 0.01 0.01 0.00 0.00 0.00 0.00 0.00 0.00 0.00 0.00 0.00 0.00 0.00 0.00 0.00 0.00 0.00 0.00 0.01 0.01 0.01 0.01 0.00 0.00 0.00 0.00 0.00 0.00 0.00 0.00 0.00
0.00 0.00 0.00 0.01 0.01 0.03 0.05 0.05 0.08 0.06 0.03 0.01 0.02 0.00 0.00 0.00 0.00 0.00 0.00 0.00 0.00 0.00 0.00 0.00 0.00 0.00 0.00 0.00 0.00 0.00 0.01 0.02 0.02 0.02 0.01 0.01 0.00 0.00 0.00 0.00 0.00 0.00 0.01
0.00 0.00 0.00 0.01 0.01 0.02 0.04 0.07 0.05 0.04 0.06 0.05 0.00 0.00 0.00 0.00 0.00 0.00 0.00 0.00 0.00 0.00 0.00 0.00 0.00 0.00 0.00 0.00 0.00 0.00 0.00 0.01 0.02 0.03 0.04 0.02 0.01 0.00 0.01 0.01 0.01 0.02 0.01
0.00 0.00 0.00 0.01 0.02 0.02 0.04 0.06 0.08 0.12 0.06 0.00 0.00 0.00 0.00 0.00 0.00 0.00 0.00 0.00 0.00 0.00 0.00 0.00 0.00 0.00 0.00 0.01 0.04 0.04 0.02 0.02 0.01 0.02 0.04 0.03 0.02 0.02 0.02 0.03 0.05 0.07 0.05
0.00 0.00 0.00 0.01 0.03 0.02 0.04 0.09 0.08 0.01 0.00 0.00 0.00 0.00 0.00 0.00 0.00 0.00 0.00 0.01 0.00 0.00 0.00 0.01 0.01 0.01 0.01 0.04 0.11 0.11 0.06 0.02 0.01 0.02 0.03 0.04 0.05 0.04 0.05 0.10 0.13 0.15 0.11
0.00 0.00 0.00 0.01 0.03 0.04 0.06 0.02 0.00 0.00 0.00 0.00 0.00 0.00 0.00 0.00 0.01 0.01 0.01 0.01 0.02 0.02 0.02 0.01 0.01 0.03 0.11 0.14 0.21 0.19 0.15 0.03 0.02 0.03 0.02 0.02 0.02 0.03 0.02 0.08 0.11 0.14 0.09
0.00 0.00 0.01 0.02 0.04 0.04 0.02 0.00 0.00 0.00 0.00 0.00 0.01 0.01 0.01 0.01 0.01 0.01 0.02 0.02 0.06 0.07 0.04 0.02 0.05 0.21 0.18 0.11 0.08 0.13 0.12 0.08 0.06 0.06 0.04 0.03 0.02 0.03 0.04 0.06 0.10 0.14 0.13
0.01 0.01 0.02 0.04 0.04 0.01 0.00 0.00 0.00 0.00 0.00 0.00 0.01 0.01 0.01 0.01 0.01 0.00 0.01 0.02 0.04 0.12 0.08 0.14 0.21 0.12 0.08 0.05 0.07 0.12 0.08 0.06 0.09 0.11 0.12 0.09 0.10 0.09 0.08 0.09 0.11 0.15 0.11
0.02 0.03 0.03 0.02 0.00 0.00 0.00 0.00 0.00 0.00 0.00 0.01 0.00 0.01 0.01 0.00 0.00 0.00 0.01 0.02 0.03 0.08 0.18 0.20 0.13 0.11 0.05 0.05 0.11 0.12 0.08 0.14 0.17 0.15 0.12 0.10 0.11 0.11 0.13 0.12 0.08 0.08 0.10
0.01 0.00 0.00 0.00 0.00 0.00 0.00 0.00 0.00 0.00 0.00 0.00 0.01 0.01 0.01 0.00 0.01 0.02 0.04 0.03 0.05 0.12 0.10 0.13 0.15 0.07 0.08 0.13 0.13 0.11 0.13 0.15 0.13 0.14 0.11 0.09 0.09 0.09 0.14 0.16 0.21 0.17 0.18
0.00 0.00 0.00 0.00 0.00 0.00 0.00 0.00 0.00 0.00 0.00 0.00 0.00 0.01 0.03 0.03 0.02 0.07 0.09 0.12 0.19 0.15 0.12 0.15 0.10 0.09 0.08 0.08 0.07 0.06 0.07 0.06 0.08 0.10 0.11 0.09 0.08 0.08 0.11 0.13 0.13 0.14 0.16
0.00 0.00 0.00 0.00 0.00 0.00 0.00 0.00 0.00 0.00 0.00 0.00 0.00 0.00 0.01 0.02 0.04 0.05 0.08 0.12 0.14 0.11 0.13 0.12 0.13 0.14 0.12 0.10 0.08 0.06 0.05 0.07 0.06 0.08 0.09 0.07 0.07 0.08 0.09 0.07 0.07 0.09 0.10
0.00 0.00 0.00 0.00 0.00 0.00 0.00 0.00 0.01 0.00 0.00 0.00 0.00 0.00 0.00 0.02 0.04 0.05 0.07 0.10 0.13 0.09 0.11 0.12 0.14 0.13 0.10 0.05 0.05 0.06 0.07 0.09 0.06 0.07 0.09 0.09 0.08 0.07 0.08 0.06 0.07 0.08 0.12
0.00 0.00 0.01 0.00 0.00 0.00 0.00 0.01 0.01 0.01 0.01 0.01 0.01 0.00 0.00 0.01 0.03 0.04 0.05 0.06 0.09 0.08 0.10 0.12 0.12 0.10 0.06 0.04 0.03 0.03 0.04 0.05 0.03 0.04 0.07 0.08 0.07 0.07 0.07 0.05 0.06 0.08 0.09
0.00 0.00 0.00 0.01 0.01 0.01 0.01 0.01 0.02 0.01 0.01 0.01 0.01 0.00 0.00 0.01 0.02 0.03 0.04 0.06 0.08 0.09 0.09 0.09 0.09 0.07 0.05 0.04 0.04 0.03 0.04 0.04 0.03 0.03 0.04 0.05 0.06 0.07 0.05 0.04 0.03 0.03 0.03
0.00 0.00 0.00 0.00 0.01 0.01 0.01 0.01 0.01 0.01 0.01 0.01 0.01 0.00 0.00 0.01 0.02 0.02 0.03 0.05 0.05 0.06 0.06 0.05 0.05 0.05 0.04 0.03 0.03 0.02 0.01 0.02 0.02 0.02 0.02 0.04 0.05 0.05 0.06 0.05 0.02 0.03 0.02
0.01 0.00 0.00 0.00 0.01 0.01 0.01 0.02 0.02 0.02 0.02 0.01 0.01 0.01 0.00 0.01 0.02 0.03 0.03 0.03 0.03 0.03 0.02 0.03 0.03 0.02 0.02 0.01 0.01 0.01 0.01 0.01 0.02 0.02 0.02 0.02 0.03 0.03 0.03 0.04 0.02 0.02 0.02
0.02 0.01 0.01 0.02 0.01 0.01 0.02 0.01 0.02 0.03 0.03 0.02 0.01 0.01 0.00 0.02 0.02 0.02 0.02 0.02 0.01 0.01 0.00 0.00 0.00 0.00 0.01 0.01 0.02 0.01 0.01 0.01 0.01 0.01 0.01 0.01 0.02 0.02 0.02 0.02 0.02 0.01 0.01
0.03 0.02 0.02 0.01 0.02 0.02 0.02 0.02 0.03 0.03 0.03 0.03 0.01 0.01 0.01 0.02 0.02 0.02 0.02 0.01 0.00 0.00 0.00 0.00 0.00 0.00 0.00 0.00 0.00 0.01 0.01 0.01 0.01 0.01 0.01 0.01 0.01 0.01 0.01 0.01 0.01 0.01 0.01
0.02 0.03 0.03 0.03 0.03 0.02 0.02 0.02 0.03 0.03 0.02 0.02 0.03 0.03 0.02 0.01 0.02 0.02 0.02 0.01 0.00 0.00 0.00 0.00 0.00 0.00 0.00 0.00 0.00 0.00 0.00 0.00 0.00 0.00 0.00 0.01 0.00 0.00 0.00 0.01 0.01 0.01 0.01
0.04 0.04 0.04 0.05 0.04 0.04 0.03 0.02 0.03 0.03 0.04 0.04 0.03 0.03 0.02 0.01 0.01 0.01 0.01 0.02 0.01 0.00 0.00 0.00 0.00 0.00 0.00 0.00 0.00 0.00 0.00 0.00 0.00 0.00 0.00 0.00 0.00 0.00 0.00 0.00 0.00 0.00 0.00
0.04 0.04 0.04 0.05 0.05 0.05 0.05 0.03 0.02 0.03 0.03 0.03 0.03 0.02 0.02 0.01 0.00 0.00 0.01 0.01 0.00 0.00 0.00 0.00 0.00 0.00 0.00 0.00 0.00 0.00 0.00 0.00 0.00 0.00 0.00 0.00 0.00 0.00 0.00 0.00 0.00 0.00 0.00

GFSGL_prec_precacc24_030.txt.gz
Total_Precipitation_Accumulation
0.00 0.00 0.00 0.00 0.00 0.00 0.00 0.00 0.00 0.00 0.00 0.00 0.02 0.03 0.03 0.05 0.08 0.07 0.04 0.03 0.03 0.02 0.01 0.01 0.01 0.01 0.01 0.01 0.01 0.02 0.03 0.04 0.03 0.00 0.00 0.00 0.00 0.00 0.00 0.00 0.01 0.03 0.04
0.00 0.00 0.00 0.00 0.00 0.00 0.00 0.00 0.00 0.00 0.01 0.04 0.05 0.06 0.07 0.08 0.06 0.05 0.02 0.01 0.02 0.02 0.01 0.01 0.01 0.00 0.00 0.00 0.00 0.00 0.00 0.00 0.00 0.00 0.00 0.00 0.00 0.00 0.00 0.00 0.00 0.00 0.00
0.00 0.00 0.00 0.00 0.00 0.00 0.00 0.00 0.01 0.02 0.04 0.07 0.06 0.06 0.05 0.03 0.02 0.01 0.01 0.01 0.00 0.00 0.00 0.00 0.00 0.00 0.00 0.00 0.00 0.00 0.00 0.00 0.00 0.01 0.00 0.00 0.00 0.00 0.00 0.00 0.00 0.00 0.00
0.00 0.00 0.00 0.00 0.00 0.01 0.00 0.00 0.01 0.05 0.07 0.04 0.02 0.03 0.02 0.00 0.00 0.00 0.00 0.00 0.00 0.00 0.00 0.00 0.00 0.00 0.00 0.00 0.00 0.00 0.00 0.00 0.01 0.02 0.01 0.00 0.00 0.00 0.00 0.00 0.00 0.00 0.00
0.00 0.00 0.00 0.00 0.00 0.00 0.00 0.01 0.03 0.05 0.02 0.02 0.01 0.01 0.00 0.00 0.00 0.00 0.00 0.00 0.00 0.00 0.00 0.00 0.00 0.00 0.00 0.00 0.01 0.00 0.01 0.01 0.02 0.02 0.01 0.01 0.00 0.00 0.00 0.00 0.00 0.00 0.00
0.00 0.00 0.00 0.00 0.01 0.01 0.02 0.02 0.06 0.04 0.01 0.01 0.03 0.01 0.00 0.00 0.00 0.00 0.00 0.00 0.00 0.00 0.00 0.00 0.00 0.00 0.00 0.00 0.00 0.00 0.01 0.03 0.04 0.03 0.02 0.02 0.00 0.00 0.00 0.00 0.00 0.00 0.01
0.00 0.00 0.00 0.00 0.01 0.01 0.03 0.06 0.04 0.04 0.06 0.05 0.00 0.00 0.00 0.00 0.00 0.00 0.00 0.00 0.00 0.00 0.00 0.00 0.00 0.00 0.00 0.00 0.00 0.00 0.01 0.01 0.04 0.06 0.08 0.03 0.02 0.00 0.01 0.01 0.01 0.01 0.01
0.00 0.00 0.00 0.01 0.02 0.02 0.04 0.06 0.08 0.12 0.06 0.00 0.00 0.00 0.00 0.00 0.00 0.00 0.00 0.00 0.00 0.00 0.00 0.00 0.00 0.00 0.00 0.01 0.05 0.05 0.02 0.02 0.01 0.02 0.05 0.03 0.02 0.02 0.03 0.04 0.05 0.08 0.05
0.00 0.00 0.00 0.01 0.03 0.02 0.04 0.09 0.08 0.01 0.00 0.00 0.00 0.00 0.00 0.00 0.00 0.00 0.00 0.01 0.00 0.00 0.00 0.01 0.01 0.01 0.02 0.06 0.13 0.10 0.05 0.02 0.01 0.02 0.03 0.04 0.05 0.05 0.07 0.13 0.14 0.15 0.10
0.00 0.00 0.00 0.01 0.03 0.04 0.06 0.02 0.00 0.00 0.00 0.00 0.00 0.00 0.00 0.00 0.01 0.01 0.01 0.01 0.02 0.02 0.02 0.01 0.01 0.03 0.11 0.15 0.22 0.17 0.14 0.04 0.02 0.02 0.02 0.01 0.02 0.02 0.02 0.07 0.09 0.11 0.08
0.00 0.00 0.01 0.02 0.04 0.04 0.02 0.00 0.00 0.00 0.00 0.00 0.01 0.01 0.01 0.01 0.01 0.01 0.02 0.02 0.05 0.06 0.04 0.03 0.04 0.21 0.18 0.11 0.08 0.12 0.14 0.07 0.04 0.05 0.04 0.03 0.03 0.05 0.05 0.06 0.09 0.12 0.10
0.01 0.01 0.02 0.04 0.04 0.01 0.00 0.00 0.00 0.00 0.00 0.00 0.01 0.01 0.01 0.01 0.01 0.00 0.01 0.02 0.04 0.10 0.07 0.12 0.21 0.13 0.08 0.05 0.08 0.14 0.08 0.05 0.08 0.10 0.11 0.08 0.10 0.09 0.09 0.11 0.13 0.16 0.11
0.02 0.03 0.03 0.02 0.00 0.00 0.00 0.00 0.00 0.00 0.00 0.01 0.00 0.01 0.01 0.00 0.00 0.00 0.01 0.02 0.02 0.06 0.15 0.17 0.12 0.11 0.05 0.05 0.11 0.12 0.07 0.14 0.16 0.14 0.12 0.10 0.12 0.12 0.12 0.12 0.09 0.09 0.10
0.01 0.00 0.00 0.00 0.00 0.00 0.00 0.00 0.00 0.00 0.00 0.00 0.01 0.01 0.01 0.00 0.01 0.02 0.03 0.02 0.03 0.09 0.08 0.11 0.15 0.07 0.08 0.13 0.13 0.10 0.12 0.14 0.12 0.14 0.11 0.08 0.08 0.09 0.15 0.17 0.23 0.20 0.17
0.00 0.00 0.00 0.00 0.00 0.00 0.00 0.00 0.00 0.00 0.00 0.00 0.00 0.00 0.02 0.02 0.02 0.05 0.06 0.08 0.13 0.10 0.10 0.14 0.10 0.09 0.08 0.08 0.07 0.06 0.06 0.05 0.06 0.08 0.09 0.08 0.07 0.08 0.11 0.12 0.12 0.11 0.13
0.00 0.00 0.00 0.01 0.00 0.00 0.00 0.00 0.00 0.00 0.00 0.00 0.00 0.00 0.00 0.01 0.02 0.03 0.04 0.07 0.10 0.08 0.11 0.11 0.12 0.14 0.11 0.10 0.08 0.06 0.05 0.06 0.05 0.07 0.08 0.07 0.08 0.08 0.09 0.08 0.07 0.09 0.11
0.00 0.00 0.01 0.01 0.01 0.00 0.00 0.01 0.01 0.00 0.00 0.00 0.00 0.00 0.00 0.01 0.02 0.02 0.04 0.05 0.08 0.07 0.09 0.10 0.12 0.12 0.09 0.05 0.05 0.06 0.07 0.08 0.04 0.06 0.08 0.08 0.07 0.06 0.07 0.06 0.06 0.06 0.09
0.00 0.01 0.01 0.01 0.01 0.00 0.00 0.01 0.01 0.01 0.01 0.01 0.01 0.00 0.00 0.01 0.01 0.02 0.03 0.03 0.06 0.06 0.07 0.09 0.10 0.09 0.04 0.03 0.02 0.03 0.04 0.04 0.02 0.03 0.05 0.07 0.06 0.07 0.06 0.05 0.05 0.05 0.07
0.01 0.01 0.01 0.01 0.01 0.01 0.01 0.02 0.02 0.02 0.02 0.01 0.01 0.00 0.00 0.00 0.01 0.02 0.02 0.03 0.05 0.06 0.06 0.06 0.07 0.05 0.03 0.03 0.03 0.03 0.03 0.03 0.03 0.03 0.03 0.05 0.06 0.07 0.05 0.04 0.03 0.03 0.02
0.01 0.01 0.01 0.01 0.01 0.01 0.01 0.02 0.02 0.02 0.01 0.01 0.01 0.00 0.00 0.00 0.01 0.01 0.02 0.02 0.03 0.03 0.03 0.03 0.03 0.03 0.03 0.02 0.02 0.01 0.01 0.01 0.02 0.02 0.02 0.04 0.05 0.05 0.06 0.05 0.03 0.02 0.02
0.01 0.02 0.02 0.01 0.01 0.01 0.01 0.02 0.02 0.02 0.02 0.01 0.01 0.01 0.00 0.01 0.02 0.02 0.02 0.01 0.01 0.01 0.00 0.01 0.01 0.01 0.01 0.01 0.01 0.01 0.01 0.01 0.01 0.02 0.02 0.02 0.03 0.03 0.03 0.03 0.02 0.02 0.01
0.02 0.02 0.03 0.03 0.02 0.01 0.02 0.01 0.02 0.02 0.02 0.02 0.02 0.01 0.00 0.02 0.02 0.02 0.01 0.01 0.00 0.00 0.00 0.00 0.00 0.00 0.01 0.01 0.01 0.01 0.01 0.00 0.00 0.01 0.01 0.01 0.01 0.01 0.02 0.02 0.02 0.01 0.01
0.03 0.03 0.03 0.02 0.03 0.02 0.02 0.02 0.03 0.03 0.02 0.02 0.02 0.01 0.01 0.02 0.02 0.02 0.01 0.01 0.00 0.00 0.00 0.00 0.00 0.00 0.00 0.00 0.00 0.00 0.00 0.01 0.00 0.00 0.00 0.01 0.01 0.01 0.01 0.01 0.01 0.01 0.01
0.03 0.03 0.04 0.04 0.03 0.03 0.02 0.02 0.03 0.03 0.02 0.02 0.03 0.03 0.02 0.01 0.01 0.02 0.01 0.01 0.00 0.00 0.00 0.00 0.00 0.00 0.00 0.00 0.00 0.00 0.00 0.00 0.00 0.00 0.00 0.01 0.00 0.00 0.00 0.00 0.01 0.01 0.00
0.04 0.04 0.05 0.05 0.05 0.04 0.04 0.03 0.03 0.04 0.05 0.05 0.04 0.03 0.02 0.01 0.01 0.01 0.01 0.02 0.01 0.00 0.00 0.00 0.00 0.00 0.00 0.00 0.00 0.00 0.00 0.00 0.00 0.00 0.00 0.00 0.00 0.00 0.00 0.00 0.00 0.00 0.00
0.04 0.05 0.06 0.06 0.06 0.06 0.07 0.05 0.03 0.03 0.04 0.04 0.03 0.02 0.02 0.01 0.00 0.00 0.01 0.01 0.00 0.00 0.00 0.00 0.00 0.00 0.00 0.00 0.00 0.00 0.00 0.00 0.00 0.00 0.00 0.00 0.00 0.00 0.00 0.00 0.00 0.00 0.00

GFSGL_prec_precacc24_033.txt.gz
Total_Precipitation_Accumulation
0.00 0.00 0.00 0.00 0.00 0.00 0.00 0.00 0.00 0.00 0.00 0.00 0.02 0.03 0.03 0.05 0.08 0.06 0.04 0.03 0.03 0.02 0.01 0.01 0.01 0.01 0.01 0.01 0.01 0.02 0.03 0.04 0.03 0.00 0.00 0.00 0.00 0.00 0.00 0.00 0.01 0.03 0.04
0.00 0.00 0.00 0.00 0.00 0.00 0.00 0.00 0.00 0.00 0.01 0.04 0.05 0.05 0.05 0.07 0.06 0.05 0.02 0.01 0.02 0.02 0.01 0.01 0.01 0.00 0.00 0.00 0.00 0.00 0.00 0.00 0.00 0.00 0.00 0.00 0.00 0.00 0.00 0.00 0.00 0.00 0.00
0.00 0.00 0.00 0.00 0.00 0.00 0.00 0.00 0.01 0.02 0.04 0.07 0.06 0.05 0.05 0.03 0.02 0.01 0.01 0.01 0.00 0.00 0.00 0.00 0.00 0.00 0.00 0.00 0.00 0.00 0.00 0.00 0.01 0.02 0.01 0.00 0.00 0.00 0.00 0.00 0.00 0.00 0.00
0.00 0.00 0.00 0.00 0.00 0.01 0.00 0.00 0.01 0.05 0.07 0.04 0.02 0.02 0.01 0.00 0.00 0.00 0.00 0.00 0.00 0.00 0.00 0.00 0.00 0.00 0.00 0.00 0.01 0.01 0.01 0.01 0.01 0.02 0.01 0.01 0.00 0.00 0.00 0.00 0.00 0.00 0.00
0.00 0.00 0.00 0.00 0.00 0.00 0.00 0.01 0.03 0.05 0.01 0.01 0.01 0.01 0.00 0.00 0.00 0.00 0.00 0.00 0.00 0.00 0.00 0.00 0.00 0.00 0.00 0.01 0.01 0.01 0.01 0.02 0.02 0.02 0.02 0.01 0.01 0.00 0.00 0.01 0.01 0.00 0.00
0.00 0.00 0.00 0.00 0.00 0.01 0.02 0.02 0.06 0.04 0.01 0.01 0.03 0.01 0.00 0.00 0.00 0.00 0.00 0.00 0.00 0.00 0.00 0.00 0.00 0.00 0.00 0.00 0.00 0.00 0.01 0.04 0.06 0.05 0.04 0.03 0.01 0.01 0.01 0.01 0.01 0.01 0.01
0.00 0.00 0.00 0.00 0.01 0.01 0.03 0.06 0.04 0.04 0.06 0.05 0.00 0.00 0.00 0.00 0.00 0.00 0.00 0.00 0.00 0.00 0.00 0.00 0.00 0.00 0.00 0.00 0.00 0.01 0.01 0.01 0.06 0.10 0.10 0.04 0.03 0.01 0.02 0.02 0.02 0.02 0.02
0.00 0.00 0.00 0.01 0.02 0.02 0.04 0.06 0.08 0.12 0.06 0.00 0.00 0.00 0.00 0.00 0.00 0.00 0.00 0.00 0.00 0.00 0.00 0.00 0.00 0.00 0.00 0.01 0.07 0.06 0.02 0.01 0.02 0.04 0.07 0.04 0.03 0.03 0.04 0.05 0.07 0.09 0.05
0.00 0.00 0.00 0.01 0.03 0.02 0.04 0.09 0.08 0.01 0.00 0.00 0.00 0.00 0.00 0.00 0.00 0.00 0.00 0.01 0.00 0.00 0.00 0.01 0.01 0.01 0.02 0.07 0.13 0.10 0.04 0.02 0.01 0.02 0.04 0.05 0.06 0.06 0.07 0.13 0.15 0.16 0.10
0.00 0.00 0.00 0.01 0.03 0.04 0.06 0.02 0.00 0.00 0.00 0.00 0.00 0.00 0.00 0.00 0.01 0.01 0.01 0.01 0.02 0.02 0.01 0.01 0.01 0.03 0.11 0.14 0.21 0.15 0.12 0.04 0.01 0.02 0.01 0.02 0.02 0.02 0.02 0.04 0.06 0.10 0.09
0.00 0.00 0.01 0.02 0.04 0.04 0.02 0.00 0.00 0.00 0.00 0.00 0.01 0.01 0.01 0.01 0.01 0.01 0.02 0.02 0.04 0.05 0.03 0.02 0.04 0.20 0.17 0.11 0.09 0.13 0.16 0.07 0.04 0.04 0.04 0.03 0.03 0.05 0.06 0.07 0.08 0.09 0.07
0.01 0.01 0.02 0.04 0.04 0.01 0.00 0.00 0.00 0.00 0.00 0.00 0.01 0.01 0.01 0.01 0.01 0.00 0.01 0.02 0.03 0.07 0.06 0.10 0.18 0.11 0.08 0.05 0.08 0.14 0.08 0.05 0.08 0.10 0.11 0.08 0.09 0.09 0.10 0.12 0.15 0.16 0.11
0.02 0.03 0.03 0.02 0.00 0.00 0.00 0.00 0.00 0.00 0.00 0.01 0.00 0.01 0.01 0.00 0.00 0.00 0.01 0.02 0.02 0.04 0.10 0.14 0.09 0.10 0.05 0.05 0.11 0.11 0.07 0.13 0.15 0.13 0.12 0.10 0.12 0.12 0.13 0.11 0.10 0.10 0.10
0.01 0.00 0.00 0.00 0.00 0.00 0.00 0.00 0.00 0.00 0.00 0.00 0.00 0.00 0.00 0.00 0.01 0.01 0.02 0.02 0.02 0.06 0.05 0.09 0.13 0.07 0.08 0.13 0.13 0.10 0.12 0.13 0.12 0.14 0.11 0.08 0.08 0.09 0.15 0.19 0.25 0.23 0.16
0.00 0.00 0.00 0.00 0.00 0.00 0.00 0.00 0.00 0.00 0.00 0.00 0.00 0.00 0.01 0.01 0.01 0.03 0.04 0.05 0.09 0.07 0.06 0.11 0.08 0.08 0.08 0.08 0.06 0.06 0.06 0.05 0.06 0.07 0.08 0.07 0.07 0.08 0.11 0.12 0.12 0.11 0.14
0.00 0.00 0.00 0.01 0.01 0.00 0.00 0.00 0.00 0.00 0.00 0.00 0.00 0.00 0.00 0.01 0.01 0.02 0.03 0.04 0.06 0.04 0.08 0.08 0.10 0.12 0.11 0.09 0.08 0.05 0.04 0.06 0.04 0.06 0.07 0.07 0.07 0.08 0.09 0.08 0.08 0.09 0.12
0.00 0.00 0.01 0.01 0.01 0.00 0.00 0.01 0.01 0.00 0.00 0.00 0.00 0.00 0.00 0.01 0.01 0.01 0.02 0.02 0.05 0.04 0.06 0.07 0.10 0.10 0.08 0.04 0.04 0.05 0.06 0.07 0.03 0.05 0.06 0.06 0.06 0.06 0.06 0.05 0.06 0.06 0.08
0.00 0.01 0.02 0.01 0.01 0.01 0.01 0.01 0.01 0.01 0.01 0.01 0.01 0.00 0.00 0.01 0.01 0.01 0.01 0.01 0.03 0.03 0.05 0.06 0.07 0.07 0.03 0.02 0.02 0.02 0.03 0.04 0.02 0.02 0.04 0.05 0.05 0.06 0.06 0.04 0.04 0.05 0.06
0.01 0.01 0.01 0.02 0.01 0.01 0.02 0.02 0.02 0.02 0.02 0.01 0.01 0.00 0.00 0.00 0.01 0.02 0.01 0.02 0.03 0.03 0.04 0.04 0.04 0.03 0.01 0.01 0.02 0.02 0.03 0.03 0.02 0.02 0.03 0.04 0.05 0.06 0.05 0.04 0.03 0.02 0.02
0.01 0.01 0.02 0.02 0.02 0.02 0.02 0.02 0.02 0.02 0.02 0.01 0.01 0.00 0.00 0.00 0.02 0.01 0.02 0.01 0.01 0.01 0.01 0.01 0.01 0.01 0.01 0.01 0.01 0.01 0.01 0.01 0.01 0.01 0.02 0.03 0.04 0.04 0.05 0.05 0.02 0.02 0.01
0.01 0.02 0.02 0.02 0.02 0.02 0.02 0.02 0.02 0.02 0.02 0.02 0.01 0.01 0.00 0.02 0.02 0.02 0.01 0.00 0.00 0.00 0.00 0.00 0.00 0.00 0.00 0.01 0.01 0.01 0.01 0.01 0.01 0.01 0.01 0.02 0.03 0.03 0.03 0.03 0.02 0.02 0.01
0.02 0.02 0.03 0.03 0.02 0.02 0.02 0.01 0.02 0.02 0.02 0.02 0.02 0.01 0.00 0.02 0.02 0.02 0.01 0.00 0.00 0.00 0.00 0.00 0.00 0.00 0.00 0.00 0.01 0.01 0.01 0.00 0.00 0.01 0.01 0.01 0.01 0.01 0.02 0.02 0.02 0.01 0.01
0.03 0.03 0.03 0.03 0.03 0.03 0.03 0.02 0.03 0.03 0.02 0.02 0.02 0.01 0.01 0.01 0.02 0.01 0.01 0.01 0.00 0.00 0.00 0.00 0.00 0.00 0.00 0.00 0.00 0.00 0.00 0.01 0.00 0.00 0.00 0.01 0.01 0.01 0.01 0.01 0.01 0.01 0.01
0.03 0.03 0.04 0.04 0.04 0.03 0.03 0.03 0.03 0.03 0.03 0.03 0.03 0.03 0.02 0.01 0.01 0.01 0.01 0.01 0.00 0.00 0.00 0.00 0.00 0.00 0.00 0.00 0.00 0.00 0.00 0.00 0.00 0.00 0.00 0.01 0.00 0.00 0.00 0.00 0.01 0.01 0.00
0.04 0.05 0.06 0.06 0.06 0.05 0.05 0.05 0.05 0.05 0.06 0.06 0.05 0.04 0.02 0.01 0.01 0.00 0.01 0.01 0.01 0.00 0.00 0.00 0.00 0.00 0.00 0.00 0.00 0.00 0.00 0.00 0.00 0.00 0.00 0.00 0.00 0.00 0.00 0.00 0.00 0.00 0.00
0.05 0.05 0.06 0.07 0.07 0.06 0.08 0.06 0.05 0.05 0.06 0.05 0.05 0.05 0.03 0.02 0.00 0.00 0.00 0.00 0.00 0.00 0.00 0.00 0.00 0.00 0.00 0.00 0.00 0.00 0.00 0.00 0.00 0.00 0.00 0.00 0.00 0.00 0.00 0.00 0.00 0.00 0.00

GFSGL_prec_precacc24_036.txt.gz
Total_Precipitation_Accumulation
0.00 0.00 0.00 0.00 0.00 0.00 0.00 0.00 0.00 0.00 0.00 0.00 0.02 0.03 0.03 0.02 0.02 0.05 0.05 0.04 0.03 0.02 0.01 0.01 0.01 0.01 0.01 0.01 0.01 0.02 0.03 0.04 0.03 0.00 0.00 0.00 0.00 0.00 0.00 0.00 0.01 0.03 0.04
0.00 0.00 0.00 0.00 0.00 0.00 0.00 0.00 0.00 0.00 0.01 0.03 0.05 0.04 0.03 0.03 0.05 0.05 0.02 0.01 0.02 0.02 0.01 0.01 0.01 0.00 0.00 0.00 0.00 0.00 0.00 0.00 0.00 0.00 0.00 0.00 0.00 0.00 0.00 0.00 0.00 0.00 0.00
0.00 0.00 0.00 0.00 0.00 0.00 0.00 0.00 0.00 0.02 0.03 0.05 0.05 0.04 0.04 0.02 0.02 0.01 0.01 0.01 0.00 0.00 0.00 0.00 0.00 0.00 0.00 0.00 0.00 0.00 0.00 0.01 0.01 0.03 0.01 0.00 0.00 0.00 0.00 0.00 0.00 0.00 0.00
0.00 0.00 0.00 0.00 0.00 0.00 0.00 0.00 0.01 0.04 0.06 0.03 0.02 0.02 0.01 0.00 0.00 0.00 0.00 0.00 0.00 0.00 0.00 0.00 0.00 0.00 0.00 0.00 0.01 0.01 0.01 0.01 0.02 0.03 0.02 0.01 0.00 0.00 0.01 0.01 0.01 0.00 0.01
0.00 0.00 0.00 0.00 0.00 0.00 0.00 0.01 0.03 0.04 0.01 0.01 0.01 0.01 0.00 0.00 0.00 0.00 0.00 0.00 0.00 0.00 0.00 0.00 0.00 0.00 0.00 0.01 0.01 0.01 0.02 0.02 0.03 0.03 0.02 0.02 0.01 0.01 0.01 0.01 0.02 0.01 0.01
0.00 0.00 0.00 0.00 0.00 0.01 0.02 0.02 0.06 0.04 0.01 0.01 0.03 0.01 0.00 0.00 0.00 0.00 0.00 0.00 0.00 0.00 0.00 0.00 0.00 0.00 0.00 0.00 0.00 0.01 0.02 0.04 0.07 0.06 0.05 0.04 0.02 0.02 0.02 0.03 0.04 0.03 0.02
0.00 0.00 0.00 0.00 0.01 0.01 0.03 0.06 0.04 0.04 0.06 0.06 0.01 0.00 0.00 0.00 0.00 0.00 0.00 0.00 0.00 0.00 0.00 0.00 0.00 0.00 0.00 0.00 0.00 0.01 0.01 0.02 0.07 0.12 0.13 0.06 0.04 0.03 0.03 0.04 0.04 0.04 0.03
0.00 0.00 0.00 0.01 0.02 0.02 0.04 0.06 0.08 0.12 0.06 0.00 0.00 0.00 0.00 0.00 0.00 0.00 0.00 0.00 0.00 0.00 0.00 0.00 0.00 0.00 0.00 0.01 0.07 0.07 0.03 0.02 0.02 0.05 0.10 0.07 0.05 0.06 0.07 0.08 0.09 0.11 0.06
0.00 0.00 0.00 0.01 0.03 0.02 0.04 0.09 0.08 0.01 0.00 0.00 0.00 0.00 0.00 0.00 0.00 0.00 0.00 0.00 0.00 0.00 0.00 0.00 0.01 0.01 0.02 0.07 0.12 0.09 0.04 0.01 0.01 0.02 0.04 0.05 0.06 0.07 0.09 0.15 0.15 0.17 0.11
0.00 0.00 0.00 0.01 0.03 0.04 0.06 0.02 0.00 0.00 0.00 0.00 0.00 0.00 0.00 0.00 0.01 0.01 0.01 0.01 0.01 0.01 0.01 0.01 0.01 0.03 0.11 0.13 0.19 0.14 0.12 0.04 0.01 0.01 0.01 0.01 0.02 0.03 0.02 0.05 0.05 0.08 0.07
0.00 0.00 0.01 0.02 0.04 0.04 0.02 0.00 0.00 0.00 0.00 0.00 0.00 0.00 0.00 0.01 0.01 0.00 0.01 0.01 0.03 0.04 0.02 0.02 0.03 0.17 0.15 0.10 0.08 0.13 0.16 0.07 0.04 0.04 0.03 0.03 0.03 0.05 0.06 0.09 0.10 0.09 0.06
0.00 0.01 0.02 0.04 0.04 0.01 0.00 0.00 0.00 0.00 0.00 0.00 0.01 0.01 0.01 0.01 0.00 0.00 0.00 0.01 0.03 0.05 0.04 0.07 0.14 0.09 0.08 0.05 0.08 0.14 0.07 0.04 0.07 0.09 0.10 0.08 0.09 0.09 0.10 0.13 0.16 0.18 0.11
0.02 0.03 0.03 0.02 0.00 0.00 0.00 0.00 0.00 0.00 0.00 0.00 0.00 0.01 0.01 0.00 0.00 0.00 0.00 0.01 0.01 0.03 0.07 0.10 0.09 0.09 0.04 0.05 0.11 0.11 0.06 0.12 0.14 0.13 0.11 0.10 0.11 0.12 0.12 0.13 0.13 0.12 0.11
0.01 0.00 0.00 0.00 0.00 0.00 0.00 0.00 0.00 0.00 0.00 0.00 0.00 0.00 0.00 0.00 0.00 0.01 0.01 0.01 0.01 0.03 0.02 0.05 0.11 0.05 0.06 0.12 0.13 0.10 0.11 0.12 0.11 0.13 0.11 0.08 0.08 0.08 0.14 0.19 0.27 0.23 0.17
0.00 0.00 0.00 0.00 0.00 0.00 0.00 0.00 0.00 0.00 0.00 0.00 0.00 0.00 0.01 0.01 0.01 0.02 0.03 0.03 0.05 0.04 0.04 0.08 0.05 0.05 0.07 0.08 0.06 0.06 0.05 0.04 0.05 0.06 0.07 0.07 0.07 0.07 0.10 0.12 0.12 0.10 0.16
0.00 0.00 0.00 0.01 0.01 0.00 0.00 0.00 0.00 0.00 0.00 0.00 0.00 0.00 0.01 0.01 0.00 0.01 0.02 0.02 0.03 0.02 0.05 0.05 0.06 0.08 0.09 0.09 0.07 0.05 0.04 0.06 0.04 0.05 0.06 0.06 0.07 0.07 0.07 0.08 0.07 0.08 0.12
0.00 0.00 0.01 0.01 0.01 0.01 0.01 0.01 0.01 0.00 0.00 0.00 0.00 0.00 0.00 0.01 0.00 0.01 0.01 0.01 0.03 0.02 0.03 0.04 0.07 0.07 0.06 0.04 0.04 0.04 0.06 0.06 0.03 0.04 0.06 0.06 0.06 0.05 0.05 0.05 0.05 0.05 0.07
0.00 0.01 0.02 0.01 0.02 0.01 0.01 0.02 0.02 0.02 0.02 0.01 0.01 0.00 0.00 0.00 0.01 0.01 0.01 0.01 0.01 0.02 0.02 0.04 0.05 0.04 0.01 0.01 0.01 0.02 0.03 0.03 0.02 0.02 0.04 0.05 0.05 0.06 0.05 0.03 0.03 0.03 0.05
0.00 0.00 0.01 0.02 0.01 0.01 0.02 0.03 0.02 0.02 0.02 0.01 0.01 0.00 0.00 0.00 0.01 0.01 0.02 0.02 0.02 0.01 0.02 0.02 0.02 0.01 0.00 0.01 0.01 0.01 0.02 0.02 0.02 0.02 0.02 0.03 0.05 0.05 0.04 0.03 0.02 0.01 0.01
0.00 0.01 0.02 0.02 0.02 0.02 0.02 0.02 0.03 0.02 0.02 0.02 0.01 0.01 0.00 0.01 0.02 0.02 0.02 0.02 0.01 0.00 0.00 0.00 0.00 0.00 0.01 0.01 0.01 0.01 0.01 0.01 0.01 0.01 0.01 0.03 0.03 0.04 0.05 0.04 0.02 0.02 0.01
0.01 0.02 0.02 0.02 0.02 0.02 0.02 0.03 0.03 0.03 0.02 0.01 0.01 0.01 0.00 0.02 0.02 0.02 0.02 0.02 0.01 0.00 0.00 0.00 0.00 0.00 0.00 0.01 0.00 0.00 0.00 0.00 0.00 0.01 0.01 0.01 0.02 0.02 0.02 0.03 0.02 0.01 0.01
0.02 0.02 0.03 0.03 0.03 0.02 0.02 0.02 0.02 0.03 0.03 0.02 0.01 0.00 0.00 0.02 0.02 0.02 0.01 0.01 0.01 0.01 0.00 0.00 0.00 0.00 0.00 0.00 0.00 0.00 0.00 0.00 0.00 0.00 0.00 0.00 0.01 0.01 0.01 0.01 0.01 0.01 0.01
0.03 0.04 0.03 0.03 0.04 0.04 0.03 0.02 0.03 0.03 0.03 0.02 0.02 0.01 0.01 0.02 0.02 0.01 0.01 0.01 0.01 0.01 0.00 0.00 0.00 0.00 0.00 0.00 0.00 0.00 0.00 0.00 0.00 0.00 0.00 0.01 0.00 0.00 0.00 0.01 0.01 0.00 0.01
0.03 0.03 0.04 0.04 0.04 0.04 0.04 0.03 0.04 0.04 0.04 0.04 0.04 0.04 0.03 0.01 0.01 0.01 0.01 0.02 0.01 0.01 0.00 0.00 0.00 0.00 0.00 0.00 0.00 0.00 0.00 0.00 0.00 0.00 0.00 0.01 0.00 0.00 0.00 0.00 0.00 0.00 0.00
0.04 0.05 0.06 0.07 0.07 0.07 0.07 0.06 0.06 0.06 0.08 0.08 0.07 0.06 0.04 0.04 0.03 0.02 0.02 0.02 0.01 0.01 0.00 0.00 0.00 0.00 0.00 0.00 0.00 0.00 0.00 0.00 0.00 0.00 0.00 0.00 0.00 0.00 0.00 0.00 0.00 0.00 0.00
0.06 0.05 0.06 0.07 0.07 0.07 0.09 0.08 0.06 0.06 0.07 0.07 0.07 0.06 0.05 0.05 0.03 0.03 0.03 0.03 0.01 0.00 0.00 0.00 0.00 0.00 0.00 0.00 0.00 0.00 0.00 0.00 0.00 0.00 0.00 0.00 0.00 0.00 0.00 0.00 0.00 0.00 0.00

GFSGL_prec_precacc24_039.txt.gz
Total_Precipitation_Accumulation
0.00 0.00 0.00 0.00 0.00 0.00 0.00 0.00 0.00 0.00 0.00 0.00 0.02 0.03 0.03 0.01 0.02 0.03 0.04 0.04 0.03 0.01 0.01 0.02 0.02 0.01 0.01 0.01 0.01 0.02 0.03 0.04 0.03 0.00 0.00 0.00 0.00 0.00 0.00 0.00 0.01 0.03 0.04
0.00 0.00 0.00 0.00 0.00 0.00 0.00 0.00 0.00 0.00 0.00 0.01 0.02 0.03 0.03 0.02 0.02 0.03 0.01 0.01 0.01 0.01 0.01 0.01 0.01 0.00 0.00 0.00 0.00 0.00 0.00 0.00 0.00 0.00 0.00 0.00 0.00 0.00 0.00 0.00 0.00 0.00 0.00
0.00 0.00 0.00 0.00 0.00 0.00 0.00 0.00 0.00 0.00 0.01 0.03 0.02 0.01 0.01 0.00 0.01 0.01 0.00 0.00 0.00 0.00 0.00 0.00 0.00 0.00 0.00 0.00 0.00 0.00 0.00 0.01 0.01 0.03 0.01 0.00 0.00 0.00 0.00 0.00 0.00 0.00 0.00
0.00 0.00 0.00 0.00 0.00 0.00 0.00 0.00 0.01 0.04 0.05 0.02 0.01 0.01 0.01 0.00 0.00 0.00 0.00 0.00 0.00 0.00 0.00 0.00 0.00 0.00 0.00 0.00 0.01 0.01 0.01 0.01 0.02 0.03 0.02 0.01 0.00 0.00 0.01 0.01 0.01 0.01 0.02
0.00 0.00 0.00 0.00 0.00 0.00 0.00 0.01 0.03 0.04 0.01 0.01 0.01 0.01 0.00 0.00 0.00 0.00 0.00 0.00 0.00 0.00 0.00 0.00 0.00 0.00 0.00 0.01 0.01 0.01 0.02 0.03 0.03 0.03 0.03 0.03 0.02 0.02 0.02 0.03 0.04 0.02 0.01
0.00 0.00 0.00 0.00 0.00 0.01 0.02 0.02 0.06 0.04 0.01 0.01 0.03 0.01 0.00 0.00 0.00 0.00 0.00 0.00 0.00 0.00 0.00 0.00 0.00 0.00 0.00 0.00 0.00 0.01 0.02 0.05 0.09 0.08 0.07 0.06 0.03 0.03 0.05 0.06 0.06 0.06 0.03
0.00 0.00 0.00 0.00 0.01 0.01 0.03 0.06 0.04 0.04 0.06 0.06 0.01 0.00 0.00 0.00 0.00 0.00 0.00 0.00 0.00 0.00 0.00 0.00 0.00 0.00 0.00 0.00 0.00 0.01 0.01 0.02 0.09 0.13 0.16 0.08 0.07 0.06 0.06 0.07 0.06 0.07 0.05
0.00 0.00 0.00 0.01 0.02 0.02 0.04 0.06 0.08 0.12 0.06 0.00 0.00 0.00 0.00 0.00 0.00 0.00 0.00 0.00 0.00 0.00 0.00 0.00 0.00 0.00 0.00 0.01 0.07 0.06 0.02 0.02 0.02 0.05 0.10 0.07 0.05 0.06 0.08 0.09 0.11 0.12 0.07
0.00 0.00 0.00 0.01 0.03 0.02 0.04 0.09 0.08 0.01 0.00 0.00 0.00 0.00 0.00 0.00 0.00 0.00 0.00 0.00 0.00 0.00 0.00 0.00 0.01 0.01 0.02 0.07 0.11 0.08 0.03 0.01 0.01 0.02 0.04 0.05 0.06 0.07 0.09 0.16 0.15 0.17 0.12
0.00 0.00 0.00 0.01 0.03 0.04 0.06 0.02 0.00 0.00 0.00 0.00 0.00 0.00 0.00 0.00 0.01 0.01 0.00 0.01 0.01 0.00 0.00 0.00 0.00 0.02 0.10 0.12 0.17 0.11 0.10 0.03 0.01 0.01 0.01 0.01 0.02 0.04 0.02 0.07 0.08 0.12 0.09
0.00 0.00 0.01 0.02 0.04 0.04 0.02 0.00 0.00 0.00 0.00 0.00 0.00 0.00 0.00 0.00 0.01 0.00 0.01 0.01 0.01 0.02 0.01 0.01 0.01 0.10 0.13 0.09 0.07 0.12 0.15 0.06 0.03 0.04 0.03 0.03 0.03 0.05 0.06 0.09 0.12 0.13 0.10
0.00 0.00 0.01 0.03 0.04 0.01 0.00 0.00 0.00 0.00 0.00 0.00 0.01 0.01 0.00 0.01 0.00 0.00 0.00 0.01 0.01 0.03 0.03 0.04 0.08 0.07 0.08 0.05 0.07 0.13 0.07 0.04 0.06 0.08 0.08 0.07 0.08 0.08 0.09 0.12 0.16 0.18 0.12
0.00 0.01 0.02 0.02 0.00 0.00 0.00 0.00 0.00 0.00 0.00 0.00 0.00 0.01 0.01 0.01 0.00 0.00 0.00 0.00 0.01 0.02 0.04 0.07 0.06 0.08 0.04 0.04 0.09 0.11 0.06 0.10 0.12 0.11 0.10 0.09 0.10 0.10 0.10 0.12 0.13 0.13 0.14
0.00 0.00 0.00 0.00 0.00 0.00 0.00 0.00 0.00 0.00 0.00 0.00 0.00 0.00 0.00 0.00 0.01 0.01 0.01 0.01 0.01 0.02 0.01 0.02 0.08 0.03 0.04 0.08 0.10 0.08 0.09 0.10 0.09 0.12 0.10 0.08 0.07 0.07 0.12 0.18 0.26 0.21 0.17
0.00 0.00 0.00 0.00 0.00 0.00 0.00 0.00 0.00 0.00 0.00 0.00 0.00 0.00 0.01 0.01 0.01 0.01 0.02 0.02 0.04 0.03 0.02 0.05 0.03 0.02 0.03 0.04 0.04 0.04 0.04 0.03 0.04 0.05 0.06 0.06 0.06 0.06 0.08 0.10 0.11 0.09 0.15
0.00 0.00 0.00 0.01 0.01 0.00 0.00 0.00 0.00 0.00 0.00 0.00 0.00 0.00 0.01 0.01 0.00 0.01 0.01 0.01 0.02 0.01 0.02 0.03 0.03 0.05 0.05 0.06 0.05 0.04 0.03 0.05 0.03 0.04 0.05 0.05 0.06 0.06 0.06 0.06 0.07 0.07 0.10
0.00 0.00 0.01 0.01 0.01 0.01 0.01 0.01 0.01 0.00 0.00 0.00 0.00 0.00 0.00 0.00 0.00 0.01 0.01 0.00 0.02 0.01 0.02 0.02 0.04 0.04 0.03 0.02 0.02 0.03 0.05 0.05 0.02 0.03 0.05 0.05 0.05 0.04 0.04 0.03 0.04 0.04 0.06
0.00 0.01 0.01 0.01 0.02 0.02 0.02 0.02 0.03 0.03 0.02 0.01 0.01 0.00 0.00 0.00 0.00 0.01 0.01 0.01 0.02 0.01 0.01 0.02 0.03 0.03 0.00 0.01 0.01 0.01 0.01 0.02 0.00 0.01 0.03 0.04 0.04 0.05 0.04 0.03 0.02 0.02 0.03
0.00 0.00 0.01 0.01 0.01 0.02 0.02 0.03 0.03 0.03 0.03 0.01 0.01 0.01 0.00 0.00 0.01 0.01 0.02 0.03 0.02 0.01 0.01 0.01 0.01 0.01 0.00 0.00 0.01 0.01 0.01 0.01 0.01 0.00 0.01 0.02 0.04 0.04 0.03 0.02 0.02 0.01 0.00
0.00 0.01 0.02 0.02 0.02 0.02 0.02 0.03 0.03 0.04 0.03 0.03 0.01 0.01 0.01 0.01 0.02 0.02 0.03 0.02 0.02 0.01 0.01 0.01 0.00 0.00 0.00 0.00 0.00 0.00 0.01 0.00 0.01 0.00 0.00 0.01 0.02 0.03 0.04 0.03 0.02 0.02 0.00
0.01 0.02 0.02 0.02 0.02 0.02 0.02 0.03 0.03 0.04 0.04 0.03 0.02 0.01 0.01 0.02 0.02 0.03 0.03 0.04 0.03 0.01 0.01 0.01 0.01 0.01 0.01 0.01 0.00 0.00 0.00 0.00 0.00 0.00 0.00 0.00 0.01 0.01 0.01 0.02 0.01 0.01 0.00
0.02 0.02 0.04 0.04 0.04 0.04 0.04 0.04 0.04 0.04 0.04 0.04 0.03 0.01 0.00 0.01 0.02 0.02 0.02 0.02 0.02 0.02 0.01 0.01 0.01 0.01 0.01 0.00 0.00 0.00 0.00 0.00 0.00 0.00 0.00 0.00 0.00 0.00 0.01 0.01 0.01 0.00 0.00
0.03 0.04 0.04 0.03 0.04 0.05 0.05 0.04 0.05 0.05 0.04 0.04 0.03 0.02 0.02 0.03 0.02 0.01 0.01 0.01 0.02 0.02 0.01 0.01 0.01 0.01 0.00 0.00 0.00 0.00 0.00 0.00 0.00 0.00 0.00 0.01 0.00 0.00 0.00 0.00 0.00 0.00 0.00
0.03 0.03 0.04 0.04 0.05 0.06 0.05 0.06 0.06 0.06 0.05 0.05 0.05 0.06 0.05 0.03 0.03 0.02 0.02 0.02 0.02 0.02 0.02 0.01 0.01 0.00 0.00 0.00 0.00 0.00 0.00 0.00 0.00 0.00 0.00 0.01 0.00 0.00 0.00 0.00 0.00 0.00 0.00
0.06 0.07 0.08 0.07 0.08 0.08 0.08 0.07 0.08 0.07 0.09 0.09 0.08 0.07 0.06 0.06 0.06 0.04 0.04 0.04 0.05 0.04 0.03 0.02 0.01 0.00 0.00 0.00 0.00 0.00 0.00 0.00 0.00 0.00 0.00 0.00 0.00 0.00 0.00 0.00 0.00 0.00 0.00
0.09 0.09 0.09 0.08 0.08 0.09 0.13 0.12 0.10 0.09 0.10 0.08 0.08 0.07 0.06 0.06 0.05 0.05 0.05 0.05 0.05 0.04 0.03 0.03 0.01 0.00 0.00 0.00 0.00 0.00 0.00 0.00 0.00 0.00 0.00 0.00 0.00 0.00 0.00 0.00 0.00 0.00 0.00

GFSGL_prec_precacc24_042.txt.gz
Total_Precipitation_Accumulation
0.00 0.00 0.00 0.00 0.00 0.00 0.00 0.00 0.00 0.00 0.00 0.00 0.00 0.00 0.01 0.01 0.01 0.02 0.03 0.03 0.02 0.01 0.01 0.01 0.01 0.01 0.01 0.01 0.01 0.01 0.02 0.03 0.03 0.00 0.00 0.00 0.00 0.00 0.00 0.00 0.01 0.03 0.04
0.00 0.00 0.00 0.00 0.00 0.00 0.00 0.00 0.00 0.00 0.00 0.00 0.01 0.02 0.01 0.01 0.01 0.01 0.01 0.00 0.01 0.01 0.00 0.00 0.00 0.00 0.00 0.00 0.00 0.00 0.00 0.00 0.00 0.00 0.00 0.00 0.00 0.00 0.00 0.00 0.00 0.00 0.00
0.00 0.00 0.00 0.00 0.00 0.00 0.00 0.00 0.00 0.00 0.01 0.03 0.02 0.01 0.01 0.00 0.00 0.00 0.00 0.00 0.00 0.00 0.00 0.00 0.00 0.00 0.00 0.00 0.00 0.00 0.00 0.01 0.01 0.03 0.01 0.00 0.00 0.00 0.00 0.00 0.00 0.00 0.00
0.00 0.00 0.00 0.00 0.00 0.00 0.00 0.00 0.01 0.04 0.05 0.02 0.01 0.01 0.01 0.00 0.00 0.00 0.00 0.00 0.00 0.00 0.00 0.00 0.00 0.00 0.00 0.00 0.01 0.01 0.01 0.01 0.02 0.03 0.02 0.01 0.00 0.00 0.01 0.02 0.02 0.01 0.02
0.00 0.00 0.00 0.00 0.00 0.00 0.00 0.01 0.03 0.04 0.01 0.01 0.01 0.01 0.00 0.00 0.00 0.00 0.00 0.00 0.00 0.00 0.00 0.00 0.00 0.00 0.00 0.01 0.01 0.01 0.02 0.03 0.03 0.04 0.03 0.03 0.03 0.02 0.03 0.03 0.04 0.03 0.01
0.00 0.00 0.00 0.00 0.00 0.01 0.02 0.02 0.06 0.04 0.01 0.01 0.03 0.01 0.00 0.00 0.00 0.00 0.00 0.00 0.00 0.00 0.00 0.00 0.00 0.00 0.00 0.00 0.00 0.01 0.02 0.05 0.10 0.09 0.08 0.06 0.04 0.05 0.06 0.07 0.07 0.06 0.04
0.00 0.00 0.00 0.00 0.01 0.01 0.03 0.06 0.04 0.04 0.06 0.06 0.01 0.00 0.00 0.00 0.00 0.00 0.00 0.00 0.00 0.00 0.00 0.00 0.00 0.00 0.00 0.00 0.00 0.00 0.01 0.02 0.09 0.14 0.17 0.11 0.10 0.07 0.06 0.07 0.06 0.07 0.06
0.00 0.00 0.00 0.00 0.02 0.02 0.04 0.06 0.08 0.12 0.06 0.00 0.00 0.00 0.00 0.00 0.00 0.00 0.00 0.00 0.00 0.00 0.00 0.00 0.00 0.00 0.00 0.01 0.07 0.06 0.02 0.01 0.01 0.05 0.10 0.06 0.05 0.06 0.07 0.09 0.11 0.12 0.07
0.00 0.00 0.00 0.00 0.03 0.02 0.04 0.09 0.08 0.01 0.00 0.00 0.01 0.01 0.01 0.01 0.00 0.00 0.00 0.00 0.00 0.00 0.00 0.00 0.00 0.01 0.01 0.06 0.10 0.07 0.02 0.01 0.01 0.01 0.04 0.04 0.06 0.06 0.09 0.17 0.15 0.17 0.11
0.00 0.00 0.00 0.01 0.02 0.03 0.03 0.01 0.00 0.00 0.00 0.00 0.00 0.00 0.00 0.00 0.00 0.00 0.00 0.00 0.00 0.00 0.00 0.00 0.00 0.01 0.07 0.11 0.15 0.09 0.08 0.02 0.00 0.01 0.01 0.01 0.02 0.04 0.03 0.08 0.12 0.18 0.14
0.00 0.00 0.00 0.00 0.00 0.00 0.00 0.00 0.00 0.00 0.00 0.00 0.00 0.00 0.00 0.00 0.00 0.00 0.01 0.01 0.01 0.01 0.00 0.00 0.00 0.04 0.07 0.08 0.07 0.11 0.15 0.05 0.03 0.04 0.03 0.03 0.04 0.05 0.06 0.09 0.11 0.15 0.15
0.00 0.00 0.00 0.00 0.01 0.01 0.00 0.00 0.00 0.00 0.00 0.00 0.00 0.00 0.00 0.00 0.00 0.00 0.00 0.01 0.01 0.01 0.01 0.02 0.04 0.05 0.07 0.05 0.07 0.13 0.06 0.04 0.06 0.07 0.07 0.06 0.07 0.07 0.08 0.11 0.16 0.18 0.15
0.00 0.00 0.00 0.00 0.00 0.00 0.00 0.00 0.00 0.00 0.00 0.00 0.00 0.01 0.01 0.01 0.01 0.00 0.00 0.00 0.00 0.01 0.02 0.05 0.05 0.05 0.02 0.03 0.08 0.09 0.04 0.07 0.07 0.07 0.08 0.07 0.08 0.09 0.09 0.11 0.12 0.12 0.13
0.00 0.00 0.00 0.00 0.00 0.00 0.00 0.00 0.00 0.00 0.00 0.00 0.00 0.01 0.01 0.01 0.01 0.01 0.02 0.01 0.01 0.01 0.01 0.02 0.03 0.01 0.03 0.06 0.05 0.05 0.05 0.06 0.08 0.09 0.08 0.07 0.07 0.07 0.12 0.16 0.23 0.19 0.16
0.00 0.00 0.00 0.00 0.00 0.00 0.00 0.00 0.00 0.00 0.00 0.00 0.01 0.01 0.02 0.02 0.01 0.01 0.02 0.03 0.04 0.03 0.01 0.01 0.01 0.01 0.01 0.02 0.02 0.02 0.02 0.02 0.02 0.04 0.05 0.04 0.05 0.06 0.07 0.08 0.10 0.08 0.14
0.00 0.00 0.00 0.01 0.01 0.00 0.00 0.00 0.00 0.00 0.00 0.00 0.00 0.00 0.01 0.01 0.00 0.00 0.01 0.00 0.01 0.01 0.00 0.01 0.02 0.03 0.02 0.02 0.02 0.02 0.02 0.04 0.02 0.03 0.04 0.04 0.05 0.06 0.05 0.04 0.06 0.07 0.10
0.00 0.00 0.01 0.01 0.01 0.01 0.01 0.01 0.01 0.01 0.00 0.00 0.00 0.00 0.00 0.00 0.00 0.00 0.01 0.00 0.01 0.01 0.01 0.01 0.02 0.03 0.01 0.01 0.01 0.02 0.03 0.04 0.02 0.02 0.04 0.04 0.04 0.04 0.03 0.02 0.02 0.03 0.04
0.00 0.01 0.01 0.01 0.02 0.01 0.01 0.02 0.03 0.03 0.03 0.01 0.00 0.00 0.00 0.00 0.00 0.01 0.01 0.02 0.02 0.02 0.01 0.01 0.01 0.02 0.01 0.01 0.00 0.00 0.00 0.01 0.00 0.00 0.02 0.03 0.04 0.04 0.03 0.02 0.02 0.02 0.02
0.00 0.00 0.01 0.01 0.01 0.01 0.02 0.03 0.03 0.03 0.03 0.02 0.01 0.00 0.00 0.00 0.00 0.00 0.01 0.03 0.02 0.02 0.02 0.02 0.01 0.01 0.01 0.00 0.00 0.00 0.00 0.00 0.00 0.00 0.00 0.01 0.02 0.03 0.03 0.02 0.01 0.01 0.00
0.00 0.01 0.02 0.02 0.02 0.02 0.02 0.03 0.04 0.04 0.04 0.03 0.02 0.01 0.01 0.01 0.03 0.03 0.03 0.02 0.02 0.01 0.01 0.01 0.01 0.01 0.01 0.00 0.00 0.00 0.00 0.00 0.00 0.00 0.00 0.00 0.01 0.01 0.03 0.02 0.01 0.01 0.00
0.01 0.02 0.03 0.03 0.03 0.03 0.04 0.05 0.05 0.05 0.04 0.03 0.03 0.02 0.01 0.03 0.03 0.03 0.04 0.05 0.04 0.02 0.01 0.01 0.01 0.01 0.01 0.01 0.00 0.00 0.00 0.00 0.00 0.00 0.00 0.00 0.00 0.00 0.01 0.01 0.00 0.00 0.00
0.03 0.03 0.04 0.05 0.05 0.05 0.05 0.05 0.05 0.06 0.06 0.06 0.05 0.02 0.01 0.04 0.03 0.02 0.02 0.02 0.03 0.03 0.02 0.02 0.01 0.01 0.01 0.00 0.00 0.00 0.00 0.00 0.00 0.00 0.00 0.00 0.00 0.00 0.00 0.00 0.00 0.00 0.00
0.04 0.05 0.04 0.04 0.04 0.05 0.05 0.04 0.05 0.06 0.06 0.06 0.04 0.03 0.04 0.08 0.07 0.03 0.01 0.01 0.01 0.02 0.01 0.02 0.02 0.01 0.00 0.00 0.00 0.00 0.00 0.00 0.00 0.00 0.00 0.00 0.00 0.00 0.00 0.00 0.00 0.00 0.00
0.05 0.05 0.06 0.07 0.08 0.07 0.07 0.07 0.07 0.06 0.07 0.07 0.07 0.08 0.07 0.05 0.05 0.05 0.03 0.03 0.03 0.02 0.03 0.04 0.03 0.01 0.01 0.01 0.01 0.00 0.00 0.00 0.00 0.00 0.00 0.01 0.00 0.00 0.00 0.00 0.00 0.00 0.00
0.07 0.09 0.12 0.13 0.15 0.16 0.11 0.08 0.08 0.09 0.11 0.13 0.12 0.11 0.08 0.08 0.07 0.05 0.05 0.05 0.06 0.06 0.05 0.04 0.04 0.03 0.01 0.02 0.01 0.00 0.00 0.00 0.00 0.00 0.00 0.00 0.00 0.00 0.00 0.00 0.00 0.00 0.00
0.11 0.12 0.13 0.15 0.17 0.13 0.13 0.12 0.11 0.10 0.11 0.10 0.10 0.09 0.08 0.08 0.07 0.06 0.06 0.06 0.06 0.05 0.04 0.05 0.04 0.03 0.02 0.02 0.02 0.01 0.00 0.00 0.00 0.00 0.00 0.00 0.00 0.00 0.00 0.00 0.00 0.00 0.00

GFSGL_prec_precacc24_045.txt.gz
Total_Precipitation_Accumulation
0.00 0.00 0.00 0.00 0.00 0.00 0.00 0.00 0.00 0.00 0.00 0.00 0.00 0.00 0.01 0.01 0.01 0.02 0.03 0.03 0.02 0.01 0.00 0.00 0.01 0.00 0.00 0.00 0.00 0.00 0.00 0.01 0.02 0.00 0.00 0.00 0.00 0.00 0.00 0.00 0.00 0.01 0.02
0.00 0.00 0.00 0.00 0.00 0.00 0.00 0.00 0.00 0.00 0.00 0.00 0.01 0.02 0.01 0.01 0.01 0.01 0.00 0.00 0.00 0.00 0.00 0.00 0.00 0.00 0.00 0.00 0.00 0.00 0.00 0.00 0.00 0.00 0.00 0.00 0.00 0.00 0.00 0.00 0.00 0.00 0.00
0.00 0.00 0.00 0.00 0.00 0.00 0.00 0.00 0.00 0.00 0.01 0.03 0.02 0.01 0.01 0.00 0.00 0.00 0.00 0.00 0.00 0.00 0.00 0.00 0.00 0.00 0.00 0.00 0.00 0.00 0.00 0.01 0.01 0.03 0.01 0.00 0.00 0.00 0.00 0.00 0.00 0.00 0.00
0.00 0.00 0.00 0.00 0.00 0.00 0.00 0.00 0.01 0.04 0.05 0.02 0.01 0.01 0.01 0.00 0.00 0.00 0.00 0.00 0.00 0.00 0.00 0.00 0.00 0.00 0.00 0.00 0.01 0.01 0.01 0.01 0.02 0.03 0.02 0.01 0.00 0.00 0.01 0.02 0.02 0.01 0.02
0.00 0.00 0.00 0.00 0.00 0.00 0.00 0.01 0.03 0.04 0.01 0.01 0.01 0.01 0.00 0.00 0.00 0.00 0.00 0.00 0.00 0.00 0.00 0.00 0.00 0.00 0.00 0.01 0.01 0.01 0.02 0.03 0.03 0.04 0.03 0.03 0.03 0.02 0.03 0.04 0.05 0.03 0.01
0.00 0.00 0.00 0.00 0.00 0.00 0.00 0.01 0.03 0.04 0.01 0.01 0.03 0.01 0.00 0.00 0.00 0.00 0.00 0.00 0.00 0.00 0.00 0.00 0.00 0.00 0.00 0.00 0.00 0.01 0.02 0.05 0.10 0.09 0.08 0.07 0.04 0.06 0.07 0.07 0.07 0.06 0.04
0.00 0.00 0.00 0.00 0.00 0.00 0.00 0.00 0.01 0.04 0.06 0.06 0.01 0.00 0.00 0.00 0.00 0.00 0.00 0.00 0.00 0.00 0.00 0.00 0.00 0.00 0.00 0.00 0.00 0.00 0.01 0.02 0.09 0.14 0.17 0.11 0.10 0.07 0.06 0.07 0.06 0.07 0.06
0.00 0.00 0.00 0.00 0.00 0.00 0.00 0.01 0.06 0.12 0.06 0.00 0.00 0.00 0.00 0.00 0.00 0.00 0.00 0.00 0.00 0.00 0.00 0.00 0.00 0.00 0.00 0.01 0.07 0.06 0.02 0.01 0.01 0.05 0.10 0.06 0.05 0.06 0.07 0.08 0.09 0.09 0.06
0.00 0.00 0.00 0.00 0.00 0.00 0.00 0.00 0.04 0.01 0.00 0.00 0.01 0.01 0.01 0.01 0.00 0.00 0.00 0.00 0.00 0.00 0.00 0.00 0.00 0.01 0.01 0.06 0.09 0.07 0.02 0.01 0.01 0.01 0.03 0.03 0.05 0.05 0.09 0.17 0.16 0.19 0.13
0.00 0.00 0.00 0.00 0.00 0.00 0.00 0.00 0.00 0.00 0.00 0.00 0.00 0.00 0.00 0.00 0.00 0.00 0.00 0.00 0.00 0.00 0.00 0.00 0.00 0.01 0.04 0.06 0.12 0.08 0.07 0.02 0.00 0.01 0.01 0.01 0.02 0.04 0.04 0.09 0.12 0.18 0.14
0.00 0.00 0.00 0.00 0.00 0.00 0.00 0.00 0.00 0.00 0.00 0.00 0.00 0.00 0.00 0.00 0.00 0.00 0.00 0.00 0.00 0.01 0.00 0.00 0.00 0.02 0.05 0.06 0.06 0.11 0.14 0.05 0.03 0.04 0.03 0.03 0.04 0.05 0.06 0.09 0.11 0.15 0.17
0.00 0.00 0.00 0.00 0.00 0.00 0.00 0.00 0.00 0.00 0.00 0.00 0.00 0.00 0.00 0.00 0.00 0.00 0.00 0.01 0.01 0.01 0.01 0.01 0.03 0.03 0.03 0.03 0.06 0.11 0.04 0.03 0.05 0.05 0.05 0.05 0.05 0.06 0.06 0.09 0.13 0.16 0.14
0.00 0.00 0.00 0.00 0.00 0.00 0.00 0.00 0.00 0.00 0.00 0.00 0.00 0.01 0.01 0.01 0.01 0.00 0.00 0.00 0.00 0.00 0.01 0.03 0.02 0.01 0.01 0.02 0.04 0.06 0.02 0.03 0.03 0.04 0.06 0.06 0.07 0.08 0.09 0.11 0.12 0.12 0.12
0.00 0.00 0.00 0.00 0.00 0.00 0.00 0.00 0.00 0.00 0.00 0.00 0.00 0.01 0.01 0.01 0.01 0.01 0.02 0.01 0.01 0.00 0.00 0.00 0.00 0.00 0.02 0.03 0.03 0.03 0.03 0.04 0.06 0.07 0.07 0.06 0.06 0.07 0.12 0.16 0.20 0.18 0.16
0.00 0.00 0.00 0.00 0.00 0.00 0.00 0.00 0.00 0.00 0.00 0.00 0.01 0.01 0.02 0.02 0.01 0.01 0.02 0.02 0.05 0.03 0.01 0.01 0.00 0.00 0.01 0.00 0.01 0.02 0.01 0.02 0.02 0.03 0.04 0.04 0.05 0.06 0.07 0.07 0.08 0.07 0.14
0.00 0.00 0.00 0.01 0.01 0.00 0.00 0.00 0.00 0.00 0.00 0.00 0.00 0.00 0.01 0.01 0.00 0.00 0.00 0.00 0.00 0.00 0.00 0.00 0.01 0.01 0.01 0.01 0.01 0.00 0.00 0.02 0.02 0.02 0.03 0.03 0.05 0.05 0.04 0.03 0.05 0.07 0.09
0.00 0.00 0.01 0.01 0.01 0.01 0.01 0.01 0.01 0.01 0.00 0.00 0.00 0.00 0.00 0.00 0.00 0.00 0.00 0.00 0.00 0.00 0.01 0.00 0.02 0.02 0.01 0.01 0.01 0.00 0.01 0.01 0.01 0.02 0.03 0.04 0.04 0.03 0.03 0.02 0.02 0.03 0.04
0.00 0.01 0.01 0.01 0.01 0.01 0.01 0.02 0.02 0.03 0.02 0.01 0.00 0.00 0.00 0.00 0.00 0.00 0.00 0.03 0.03 0.02 0.01 0.00 0.01 0.01 0.01 0.01 0.00 0.00 0.00 0.00 0.00 0.00 0.01 0.02 0.03 0.03 0.02 0.02 0.02 0.01 0.01
0.00 0.00 0.01 0.01 0.01 0.01 0.02 0.03 0.04 0.04 0.03 0.01 0.01 0.00 0.00 0.00 0.00 0.00 0.02 0.07 0.03 0.02 0.02 0.02 0.01 0.01 0.01 0.00 0.00 0.00 0.00 0.00 0.00 0.00 0.00 0.01 0.01 0.02 0.02 0.02 0.01 0.01 0.00
0.00 0.01 0.02 0.03 0.03 0.03 0.03 0.05 0.06 0.06 0.06 0.04 0.03 0.02 0.01 0.02 0.04 0.03 0.03 0.04 0.04 0.02 0.01 0.01 0.01 0.01 0.01 0.01 0.00 0.00 0.00 0.00 0.00 0.00 0.00 0.00 0.00 0.01 0.02 0.01 0.01 0.00 0.00
0.02 0.02 0.03 0.04 0.04 0.05 0.05 0.07 0.07 0.08 0.08 0.06 0.04 0.02 0.01 0.07 0.07 0.05 0.05 0.07 0.05 0.02 0.01 0.01 0.01 0.01 0.01 0.01 0.00 0.00 0.00 0.00 0.00 0.00 0.00 0.00 0.00 0.00 0.00 0.00 0.00 0.00 0.00
0.03 0.03 0.05 0.05 0.06 0.06 0.05 0.06 0.07 0.07 0.05 0.05 0.05 0.05 0.06 0.10 0.06 0.04 0.04 0.04 0.05 0.06 0.04 0.03 0.03 0.01 0.01 0.00 0.00 0.00 0.00 0.00 0.00 0.00 0.00 0.00 0.00 0.00 0.00 0.00 0.00 0.00 0.00
0.04 0.05 0.04 0.04 0.04 0.05 0.07 0.09 0.11 0.09 0.07 0.06 0.04 0.03 0.04 0.09 0.08 0.06 0.03 0.03 0.04 0.04 0.03 0.05 0.05 0.03 0.01 0.00 0.00 0.00 0.00 0.00 0.00 0.00 0.00 0.00 0.00 0.00 0.00 0.00 0.00 0.00 0.00
0.05 0.05 0.07 0.08 0.10 0.12 0.11 0.11 0.14 0.12 0.09 0.08 0.08 0.10 0.10 0.10 0.10 0.08 0.06 0.06 0.06 0.05 0.05 0.06 0.06 0.05 0.03 0.03 0.01 0.00 0.00 0.00 0.00 0.00 0.00 0.00 0.00 0.00 0.00 0.00 0.00 0.00 0.00
0.08 0.11 0.13 0.15 0.18 0.21 0.25 0.26 0.20 0.12 0.12 0.13 0.13 0.13 0.11 0.12 0.12 0.12 0.11 0.09 0.08 0.07 0.05 0.05 0.05 0.04 0.04 0.06 0.05 0.01 0.00 0.00 0.00 0.00 0.00 0.00 0.00 0.00 0.00 0.00 0.00 0.00 0.00
0.11 0.14 0.16 0.17 0.21 0.21 0.21 0.18 0.16 0.12 0.12 0.11 0.10 0.09 0.09 0.09 0.08 0.07 0.07 0.09 0.10 0.09 0.06 0.06 0.05 0.04 0.04 0.05 0.07 0.04 0.01 0.01 0.01 0.00 0.00 0.00 0.00 0.00 0.00 0.00 0.00 0.00 0.00

GFSGL_prec_precacc24_048.txt.gz
Total_Precipitation_Accumulation
0.00 0.00 0.00 0.00 0.00 0.00 0.00 0.00 0.00 0.00 0.01 0.00 0.00 0.00 0.01 0.01 0.01 0.02 0.03 0.03 0.02 0.01 0.00 0.00 0.01 0.00 0.00 0.00 0.00 0.00 0.00 0.00 0.01 0.00 0.00 0.00 0.00 0.00 0.00 0.00 0.00 0.00 0.00
0.00 0.00 0.00 0.01 0.01 0.01 0.01 0.01 0.00 0.00 0.00 0.00 0.01 0.02 0.01 0.01 0.01 0.01 0.00 0.00 0.00 0.00 0.00 0.00 0.00 0.00 0.00 0.00 0.00 0.00 0.00 0.00 0.00 0.00 0.00 0.00 0.00 0.00 0.00 0.00 0.00 0.00 0.00
0.00 0.00 0.01 0.02 0.01 0.01 0.00 0.00 0.00 0.00 0.00 0.01 0.02 0.01 0.01 0.00 0.00 0.00 0.00 0.00 0.00 0.00 0.00 0.00 0.00 0.00 0.00 0.00 0.00 0.00 0.00 0.01 0.01 0.03 0.01 0.00 0.00 0.00 0.00 0.00 0.00 0.00 0.00
0.03 0.03 0.02 0.01 0.00 0.00 0.00 0.00 0.00 0.00 0.00 0.01 0.01 0.01 0.01 0.00 0.00 0.00 0.00 0.00 0.00 0.00 0.00 0.00 0.00 0.00 0.00 0.00 0.01 0.01 0.01 0.01 0.02 0.03 0.02 0.01 0.00 0.00 0.01 0.02 0.02 0.01 0.02
0.03 0.01 0.01 0.00 0.00 0.00 0.00 0.00 0.00 0.00 0.00 0.00 0.01 0.01 0.00 0.00 0.00 0.00 0.00 0.00 0.00 0.00 0.00 0.00 0.00 0.00 0.00 0.00 0.00 0.00 0.02 0.03 0.03 0.04 0.03 0.03 0.03 0.02 0.04 0.05 0.05 0.03 0.01
0.00 0.00 0.00 0.00 0.00 0.00 0.00 0.00 0.00 0.00 0.00 0.01 0.03 0.01 0.00 0.00 0.00 0.00 0.00 0.00 0.00 0.00 0.00 0.00 0.00 0.00 0.00 0.00 0.00 0.00 0.01 0.04 0.09 0.09 0.08 0.07 0.04 0.06 0.07 0.07 0.07 0.06 0.04
0.00 0.00 0.00 0.00 0.00 0.00 0.00 0.00 0.00 0.00 0.00 0.03 0.01 0.00 0.00 0.00 0.00 0.00 0.00 0.00 0.00 0.00 0.00 0.00 0.00 0.00 0.00 0.00 0.00 0.00 0.01 0.02 0.09 0.14 0.17 0.11 0.10 0.07 0.06 0.07 0.06 0.07 0.07
0.00 0.00 0.00 0.00 0.00 0.00 0.00 0.00 0.00 0.00 0.00 0.00 0.00 0.00 0.00 0.00 0.00 0.00 0.00 0.00 0.00 0.00 0.00 0.00 0.00 0.00 0.00 0.01 0.06 0.06 0.02 0.01 0.01 0.04 0.09 0.06 0.05 0.06 0.07 0.09 0.11 0.11 0.05
0.00 0.00 0.00 0.00 0.00 0.02 0.03 0.01 0.00 0.00 0.00 0.00 0.01 0.01 0.01 0.01 0.00 0.00 0.00 0.00 0.00 0.00 0.00 0.00 0.00 0.00 0.01 0.04 0.07 0.05 0.02 0.01 0.01 0.01 0.02 0.02 0.03 0.05 0.08 0.17 0.15 0.18 0.12
0.00 0.00 0.00 0.02 0.06 0.04 0.01 0.00 0.00 0.00 0.00 0.00 0.00 0.00 0.00 0.00 0.00 0.00 0.00 0.00 0.00 0.00 0.00 0.00 0.00 0.01 0.03 0.04 0.08 0.06 0.07 0.02 0.00 0.01 0.01 0.01 0.02 0.04 0.04 0.09 0.12 0.19 0.15
0.00 0.03 0.06 0.04 0.00 0.00 0.00 0.00 0.00 0.00 0.00 0.00 0.00 0.00 0.00 0.00 0.00 0.00 0.00 0.00 0.00 0.00 0.00 0.00 0.00 0.01 0.02 0.03 0.04 0.09 0.13 0.04 0.02 0.03 0.03 0.03 0.03 0.05 0.06 0.08 0.10 0.15 0.17
0.02 0.02 0.00 0.00 0.00 0.00 0.00 0.00 0.00 0.00 0.00 0.00 0.00 0.00 0.00 0.00 0.00 0.00 0.00 0.00 0.00 0.01 0.01 0.00 0.01 0.01 0.01 0.02 0.03 0.06 0.02 0.01 0.03 0.03 0.03 0.03 0.04 0.04 0.05 0.07 0.10 0.12 0.12
0.00 0.00 0.00 0.00 0.00 0.00 0.00 0.00 0.00 0.00 0.00 0.00 0.00 0.01 0.01 0.01 0.01 0.00 0.00 0.00 0.00 0.00 0.00 0.01 0.00 0.00 0.00 0.00 0.02 0.03 0.01 0.02 0.01 0.02 0.03 0.04 0.05 0.06 0.07 0.10 0.12 0.12 0.11
0.00 0.00 0.00 0.00 0.00 0.00 0.00 0.00 0.00 0.00 0.00 0.00 0.00 0.01 0.01 0.01 0.01 0.01 0.02 0.01 0.00 0.00 0.00 0.00 0.00 0.00 0.00 0.01 0.01 0.01 0.01 0.02 0.04 0.05 0.05 0.04 0.05 0.06 0.10 0.14 0.18 0.17 0.15
0.00 0.00 0.00 0.00 0.00 0.00 0.00 0.00 0.00 0.00 0.00 0.00 0.01 0.01 0.02 0.02 0.01 0.01 0.02 0.02 0.04 0.02 0.02 0.01 0.01 0.00 0.00 0.00 0.00 0.00 0.00 0.01 0.01 0.02 0.03 0.03 0.04 0.04 0.06 0.06 0.07 0.07 0.13
0.00 0.00 0.00 0.01 0.01 0.00 0.00 0.00 0.00 0.00 0.00 0.00 0.00 0.00 0.01 0.01 0.00 0.00 0.00 0.00 0.00 0.00 0.02 0.01 0.01 0.01 0.01 0.00 0.00 0.00 0.00 0.00 0.01 0.01 0.02 0.02 0.03 0.04 0.03 0.03 0.04 0.06 0.08
0.00 0.00 0.01 0.01 0.01 0.01 0.01 0.01 0.01 0.01 0.00 0.00 0.00 0.00 0.00 0.00 0.00 0.00 0.00 0.01 0.01 0.02 0.03 0.01 0.01 0.01 0.01 0.01 0.00 0.00 0.00 0.00 0.00 0.01 0.02 0.02 0.02 0.02 0.02 0.02 0.02 0.03 0.03
0.00 0.01 0.01 0.01 0.01 0.01 0.01 0.02 0.03 0.03 0.03 0.02 0.01 0.01 0.00 0.00 0.00 0.00 0.01 0.05 0.07 0.04 0.02 0.01 0.01 0.01 0.01 0.00 0.00 0.00 0.00 0.00 0.00 0.00 0.00 0.01 0.02 0.02 0.02 0.02 0.02 0.01 0.01
0.00 0.00 0.01 0.01 0.01 0.02 0.03 0.04 0.05 0.06 0.05 0.03 0.01 0.01 0.00 0.00 0.00 0.00 0.02 0.10 0.05 0.03 0.02 0.02 0.01 0.01 0.01 0.00 0.00 0.00 0.00 0.00 0.00 0.00 0.00 0.00 0.01 0.01 0.01 0.01 0.01 0.01 0.00
0.00 0.01 0.02 0.03 0.03 0.03 0.04 0.05 0.07 0.07 0.08 0.06 0.04 0.02 0.01 0.02 0.04 0.03 0.03 0.05 0.06 0.03 0.02 0.02 0.01 0.01 0.01 0.01 0.00 0.00 0.00 0.00 0.00 0.00 0.00 0.00 0.00 0.00 0.01 0.01 0.01 0.00 0.00
0.02 0.02 0.03 0.04 0.04 0.05 0.06 0.07 0.08 0.11 0.11 0.09 0.07 0.03 0.02 0.07 0.09 0.09 0.08 0.09 0.07 0.04 0.03 0.03 0.02 0.02 0.01 0.01 0.00 0.00 0.00 0.00 0.00 0.00 0.00 0.00 0.00 0.00 0.00 0.00 0.00 0.00 0.00
0.03 0.03 0.05 0.06 0.06 0.06 0.06 0.06 0.07 0.08 0.08 0.09 0.09 0.09 0.06 0.10 0.07 0.04 0.04 0.04 0.06 0.07 0.06 0.06 0.04 0.01 0.01 0.01 0.00 0.01 0.01 0.00 0.00 0.00 0.00 0.00 0.00 0.00 0.00 0.00 0.00 0.00 0.00
0.04 0.05 0.05 0.04 0.05 0.06 0.09 0.10 0.13 0.14 0.14 0.13 0.12 0.07 0.05 0.09 0.09 0.07 0.06 0.06 0.07 0.07 0.07 0.11 0.10 0.05 0.01 0.01 0.01 0.01 0.01 0.00 0.00 0.00 0.00 0.00 0.00 0.00 0.00 0.00 0.00 0.00 0.00
0.05 0.06 0.07 0.08 0.10 0.13 0.14 0.15 0.19 0.24 0.26 0.22 0.15 0.13 0.11 0.10 0.11 0.11 0.10 0.10 0.11 0.09 0.07 0.09 0.09 0.07 0.06 0.04 0.02 0.01 0.01 0.01 0.00 0.00 0.00 0.00 0.00 0.00 0.00 0.00 0.00 0.00 0.00
0.08 0.11 0.13 0.15 0.18 0.22 0.26 0.27 0.24 0.17 0.16 0.16 0.16 0.15 0.12 0.11 0.12 0.12 0.12 0.11 0.11 0.10 0.09 0.08 0.07 0.05 0.05 0.07 0.06 0.02 0.01 0.03 0.02 0.00 0.00 0.00 0.00 0.00 0.00 0.00 0.00 0.00 0.00
0.11 0.14 0.15 0.17 0.21 0.21 0.22 0.19 0.16 0.13 0.14 0.12 0.12 0.11 0.10 0.09 0.08 0.08 0.07 0.09 0.10 0.10 0.07 0.08 0.07 0.05 0.05 0.06 0.08 0.06 0.04 0.06 0.04 0.02 0.00 0.00 0.00 0.00 0.00 0.00 0.00 0.00 0.00

GFSGL_prec_precacc24_051.txt.gz
Total_Precipitation_Accumulation
0.01 0.02 0.01 0.01 0.01 0.01 0.01 0.01 0.01 0.03 0.06 0.03 0.01 0.00 0.00 0.01 0.01 0.02 0.03 0.03 0.02 0.01 0.00 0.00 0.01 0.00 0.00 0.00 0.00 0.00 0.00 0.00 0.00 0.00 0.00 0.00 0.00 0.00 0.00 0.00 0.00 0.00 0.00
0.03 0.02 0.01 0.01 0.02 0.01 0.02 0.04 0.09 0.09 0.02 0.01 0.00 0.00 0.01 0.01 0.01 0.01 0.00 0.00 0.00 0.00 0.00 0.00 0.00 0.00 0.00 0.00 0.00 0.00 0.00 0.00 0.00 0.00 0.00 0.00 0.00 0.00 0.00 0.00 0.00 0.00 0.00
0.02 0.03 0.02 0.03 0.02 0.03 0.05 0.05 0.03 0.01 0.01 0.00 0.00 0.00 0.01 0.00 0.00 0.00 0.00 0.00 0.00 0.00 0.00 0.00 0.00 0.00 0.00 0.00 0.00 0.00 0.00 0.01 0.01 0.03 0.01 0.00 0.00 0.00 0.00 0.00 0.00 0.00 0.00
0.06 0.06 0.06 0.04 0.03 0.01 0.01 0.00 0.00 0.00 0.00 0.00 0.00 0.01 0.00 0.00 0.00 0.00 0.00 0.00 0.00 0.00 0.00 0.00 0.00 0.00 0.00 0.00 0.01 0.01 0.01 0.01 0.02 0.03 0.02 0.01 0.00 0.00 0.01 0.02 0.02 0.01 0.02
0.08 0.05 0.03 0.01 0.00 0.00 0.00 0.00 0.00 0.00 0.00 0.00 0.00 0.00 0.00 0.00 0.00 0.00 0.00 0.00 0.00 0.00 0.00 0.00 0.00 0.00 0.00 0.00 0.00 0.00 0.01 0.02 0.02 0.03 0.03 0.03 0.03 0.02 0.04 0.05 0.05 0.03 0.01
0.05 0.03 0.01 0.00 0.00 0.00 0.00 0.00 0.00 0.00 0.00 0.00 0.00 0.00 0.00 0.00 0.00 0.00 0.00 0.00 0.00 0.00 0.00 0.00 0.00 0.00 0.00 0.00 0.00 0.00 0.01 0.03 0.09 0.08 0.08 0.06 0.04 0.06 0.07 0.07 0.07 0.06 0.05
0.01 0.01 0.00 0.00 0.00 0.00 0.00 0.00 0.00 0.01 0.01 0.00 0.00 0.00 0.00 0.00 0.00 0.00 0.00 0.00 0.00 0.00 0.00 0.00 0.00 0.00 0.00 0.00 0.00 0.00 0.01 0.02 0.08 0.13 0.16 0.11 0.10 0.07 0.06 0.07 0.06 0.08 0.08
0.00 0.00 0.00 0.00 0.00 0.00 0.00 0.03 0.05 0.02 0.00 0.00 0.00 0.00 0.00 0.00 0.00 0.00 0.00 0.00 0.00 0.00 0.00 0.00 0.00 0.00 0.00 0.01 0.05 0.04 0.02 0.01 0.01 0.04 0.09 0.06 0.04 0.05 0.07 0.09 0.13 0.12 0.06
0.00 0.00 0.00 0.00 0.00 0.03 0.07 0.06 0.02 0.00 0.00 0.00 0.01 0.01 0.01 0.01 0.00 0.00 0.00 0.00 0.00 0.00 0.00 0.00 0.00 0.00 0.01 0.03 0.05 0.04 0.01 0.01 0.01 0.01 0.02 0.02 0.02 0.03 0.06 0.15 0.14 0.16 0.12
0.00 0.00 0.00 0.03 0.11 0.09 0.03 0.00 0.00 0.00 0.00 0.00 0.00 0.00 0.00 0.00 0.00 0.00 0.00 0.00 0.00 0.00 0.00 0.00 0.00 0.00 0.02 0.02 0.05 0.04 0.05 0.02 0.00 0.01 0.01 0.01 0.02 0.04 0.04 0.09 0.12 0.19 0.15
0.01 0.06 0.10 0.08 0.02 0.00 0.00 0.00 0.00 0.00 0.00 0.00 0.00 0.00 0.00 0.00 0.00 0.00 0.00 0.00 0.00 0.00 0.00 0.00 0.00 0.01 0.01 0.02 0.02 0.05 0.09 0.02 0.01 0.02 0.02 0.02 0.03 0.04 0.05 0.08 0.09 0.14 0.17
0.03 0.02 0.00 0.00 0.00 0.00 0.00 0.00 0.00 0.00 0.00 0.00 0.00 0.00 0.00 0.00 0.00 0.00 0.00 0.00 0.00 0.00 0.00 0.00 0.00 0.00 0.00 0.01 0.01 0.03 0.01 0.00 0.01 0.02 0.02 0.02 0.02 0.03 0.03 0.06 0.09 0.10 0.10
0.00 0.00 0.00 0.00 0.00 0.00 0.00 0.00 0.00 0.00 0.00 0.00 0.00 0.01 0.01 0.01 0.01 0.00 0.00 0.00 0.00 0.00 0.00 0.00 0.00 0.00 0.00 0.00 0.00 0.01 0.00 0.01 0.01 0.02 0.02 0.03 0.03 0.04 0.05 0.08 0.11 0.11 0.11
0.00 0.00 0.00 0.00 0.00 0.00 0.00 0.00 0.00 0.00 0.00 0.00 0.00 0.01 0.01 0.01 0.01 0.01 0.02 0.01 0.00 0.00 0.00 0.00 0.00 0.01 0.00 0.00 0.00 0.00 0.00 0.00 0.02 0.03 0.03 0.03 0.03 0.04 0.07 0.11 0.16 0.14 0.14
0.00 0.00 0.00 0.00 0.00 0.00 0.00 0.00 0.00 0.00 0.00 0.00 0.01 0.01 0.02 0.02 0.01 0.01 0.02 0.02 0.03 0.02 0.03 0.04 0.03 0.02 0.02 0.00 0.00 0.00 0.00 0.00 0.00 0.01 0.01 0.01 0.02 0.02 0.03 0.04 0.06 0.05 0.13
0.00 0.00 0.00 0.01 0.01 0.00 0.00 0.00 0.00 0.00 0.00 0.00 0.00 0.00 0.01 0.01 0.00 0.01 0.01 0.00 0.00 0.01 0.05 0.03 0.01 0.01 0.02 0.01 0.00 0.00 0.00 0.00 0.00 0.00 0.01 0.01 0.02 0.02 0.02 0.03 0.04 0.05 0.07
0.00 0.00 0.01 0.01 0.01 0.01 0.01 0.01 0.01 0.01 0.00 0.00 0.00 0.01 0.01 0.03 0.04 0.04 0.04 0.02 0.01 0.05 0.07 0.01 0.01 0.01 0.01 0.01 0.00 0.00 0.00 0.00 0.00 0.00 0.00 0.01 0.01 0.01 0.01 0.02 0.02 0.02 0.02
0.00 0.01 0.01 0.01 0.01 0.01 0.01 0.02 0.03 0.04 0.04 0.02 0.01 0.01 0.01 0.02 0.03 0.04 0.04 0.08 0.09 0.05 0.04 0.01 0.01 0.01 0.01 0.01 0.00 0.00 0.00 0.00 0.00 0.00 0.00 0.00 0.01 0.01 0.01 0.01 0.01 0.01 0.00
0.00 0.00 0.01 0.01 0.01 0.02 0.03 0.04 0.05 0.06 0.05 0.03 0.02 0.01 0.00 0.00 0.01 0.02 0.02 0.13 0.07 0.03 0.02 0.03 0.02 0.02 0.01 0.02 0.01 0.00 0.00 0.00 0.00 0.00 0.00 0.00 0.00 0.00 0.01 0.01 0.01 0.01 0.00
0.00 0.01 0.02 0.03 0.03 0.03 0.04 0.06 0.07 0.08 0.08 0.07 0.05 0.03 0.02 0.07 0.10 0.07 0.04 0.05 0.07 0.04 0.03 0.03 0.03 0.03 0.03 0.02 0.02 0.01 0.00 0.00 0.00 0.00 0.00 0.00 0.00 0.00 0.00 0.00 0.01 0.00 0.00
0.01 0.02 0.03 0.04 0.04 0.05 0.06 0.07 0.08 0.12 0.12 0.10 0.07 0.05 0.06 0.16 0.16 0.12 0.08 0.09 0.07 0.05 0.04 0.04 0.03 0.03 0.03 0.04 0.02 0.02 0.01 0.00 0.00 0.00 0.00 0.00 0.00 0.00 0.00 0.00 0.00 0.00 0.00
0.02 0.03 0.05 0.06 0.06 0.06 0.06 0.07 0.09 0.09 0.08 0.10 0.13 0.15 0.19 0.24 0.16 0.08 0.06 0.05 0.06 0.08 0.09 0.11 0.08 0.05 0.04 0.04 0.03 0.03 0.01 0.01 0.00 0.00 0.00 0.00 0.00 0.00 0.00 0.00 0.00 0.00 0.00
0.03 0.05 0.05 0.04 0.05 0.06 0.09 0.11 0.14 0.15 0.14 0.16 0.16 0.14 0.11 0.15 0.14 0.10 0.08 0.07 0.09 0.13 0.13 0.16 0.15 0.10 0.05 0.04 0.03 0.04 0.03 0.00 0.00 0.01 0.00 0.00 0.00 0.00 0.00 0.00 0.00 0.00 0.00
0.05 0.05 0.07 0.08 0.10 0.13 0.14 0.15 0.19 0.24 0.26 0.23 0.18 0.17 0.16 0.15 0.15 0.13 0.11 0.11 0.11 0.10 0.09 0.11 0.12 0.11 0.09 0.07 0.05 0.05 0.05 0.02 0.03 0.02 0.01 0.00 0.00 0.00 0.00 0.00 0.00 0.00 0.00
0.07 0.10 0.13 0.15 0.19 0.22 0.26 0.28 0.24 0.17 0.16 0.17 0.17 0.16 0.14 0.13 0.13 0.13 0.13 0.12 0.11 0.10 0.09 0.09 0.08 0.06 0.06 0.08 0.08 0.03 0.02 0.06 0.06 0.05 0.04 0.01 0.00 0.00 0.00 0.00 0.00 0.00 0.00
0.10 0.13 0.15 0.17 0.21 0.21 0.21 0.19 0.16 0.14 0.14 0.13 0.12 0.11 0.11 0.10 0.09 0.08 0.08 0.09 0.10 0.10 0.07 0.08 0.07 0.06 0.07 0.08 0.09 0.08 0.05 0.09 0.09 0.07 0.05 0.02 0.00 0.00 0.00 0.00 0.00 0.00 0.00

GFSGL_prec_precacc24_054.txt.gz
Total_Precipitation_Accumulation
0.04 0.04 0.03 0.02 0.02 0.02 0.01 0.01 0.01 0.04 0.09 0.14 0.10 0.02 0.00 0.00 0.01 0.02 0.03 0.03 0.02 0.01 0.00 0.00 0.01 0.00 0.00 0.00 0.00 0.00 0.00 0.00 0.00 0.00 0.00 0.00 0.00 0.00 0.00 0.00 0.00 0.00 0.00
0.09 0.08 0.06 0.07 0.09 0.08 0.05 0.06 0.10 0.11 0.08 0.04 0.01 0.01 0.01 0.01 0.01 0.01 0.00 0.00 0.00 0.00 0.00 0.00 0.00 0.00 0.00 0.00 0.00 0.00 0.00 0.00 0.00 0.00 0.00 0.00 0.00 0.00 0.00 0.00 0.00 0.00 0.00
0.11 0.10 0.11 0.10 0.09 0.09 0.09 0.07 0.04 0.01 0.01 0.01 0.00 0.00 0.01 0.00 0.00 0.00 0.00 0.00 0.00 0.00 0.00 0.00 0.00 0.00 0.00 0.00 0.00 0.00 0.00 0.00 0.01 0.01 0.01 0.00 0.00 0.00 0.00 0.00 0.00 0.00 0.00
0.17 0.17 0.16 0.11 0.07 0.04 0.02 0.01 0.00 0.01 0.02 0.01 0.01 0.00 0.00 0.00 0.00 0.00 0.00 0.00 0.00 0.00 0.00 0.00 0.00 0.00 0.00 0.00 0.00 0.01 0.01 0.01 0.01 0.01 0.01 0.01 0.00 0.00 0.01 0.02 0.02 0.01 0.02
0.14 0.12 0.10 0.06 0.02 0.01 0.01 0.00 0.02 0.04 0.02 0.00 0.00 0.00 0.00 0.00 0.00 0.00 0.00 0.00 0.00 0.00 0.00 0.00 0.00 0.00 0.00 0.00 0.00 0.00 0.01 0.01 0.01 0.02 0.02 0.02 0.02 0.02 0.04 0.05 0.05 0.03 0.01
0.08 0.06 0.03 0.01 0.01 0.00 0.00 0.01 0.02 0.00 0.00 0.01 0.01 0.00 0.00 0.00 0.00 0.00 0.00 0.00 0.00 0.00 0.00 0.00 0.00 0.00 0.00 0.00 0.00 0.00 0.00 0.02 0.07 0.07 0.07 0.05 0.04 0.06 0.07 0.07 0.07 0.07 0.05
0.02 0.01 0.01 0.01 0.00 0.00 0.00 0.00 0.00 0.03 0.05 0.04 0.01 0.00 0.00 0.00 0.00 0.00 0.00 0.00 0.00 0.00 0.00 0.00 0.00 0.00 0.00 0.00 0.00 0.00 0.01 0.02 0.06 0.09 0.11 0.09 0.09 0.07 0.06 0.07 0.06 0.09 0.09
0.00 0.00 0.00 0.00 0.00 0.00 0.00 0.03 0.08 0.07 0.03 0.01 0.00 0.00 0.00 0.00 0.00 0.00 0.00 0.00 0.00 0.00 0.00 0.00 0.00 0.00 0.00 0.01 0.03 0.03 0.02 0.01 0.01 0.04 0.08 0.06 0.04 0.05 0.06 0.09 0.13 0.12 0.05
0.00 0.00 0.00 0.00 0.00 0.04 0.10 0.12 0.09 0.02 0.00 0.00 0.01 0.01 0.01 0.01 0.00 0.00 0.00 0.00 0.00 0.00 0.00 0.00 0.00 0.00 0.00 0.02 0.02 0.03 0.01 0.01 0.01 0.01 0.01 0.02 0.02 0.02 0.04 0.11 0.12 0.15 0.11
0.00 0.00 0.00 0.04 0.16 0.18 0.10 0.03 0.00 0.00 0.00 0.00 0.00 0.00 0.00 0.00 0.00 0.00 0.00 0.00 0.00 0.00 0.00 0.00 0.00 0.00 0.01 0.01 0.03 0.02 0.03 0.01 0.00 0.00 0.01 0.01 0.02 0.04 0.04 0.08 0.12 0.18 0.15
0.01 0.08 0.14 0.14 0.05 0.00 0.00 0.00 0.00 0.00 0.00 0.00 0.00 0.00 0.00 0.00 0.00 0.00 0.00 0.00 0.00 0.00 0.00 0.00 0.00 0.00 0.00 0.00 0.01 0.02 0.04 0.01 0.01 0.01 0.01 0.01 0.02 0.03 0.04 0.07 0.09 0.14 0.17
0.05 0.03 0.00 0.00 0.00 0.00 0.00 0.00 0.00 0.00 0.00 0.00 0.00 0.00 0.00 0.00 0.00 0.00 0.00 0.00 0.00 0.00 0.00 0.00 0.00 0.00 0.00 0.00 0.00 0.01 0.00 0.00 0.01 0.01 0.02 0.02 0.02 0.02 0.02 0.03 0.07 0.09 0.10
0.00 0.00 0.00 0.00 0.00 0.00 0.00 0.00 0.00 0.00 0.00 0.00 0.00 0.01 0.01 0.01 0.01 0.00 0.00 0.00 0.00 0.00 0.00 0.00 0.00 0.00 0.01 0.01 0.00 0.00 0.00 0.00 0.01 0.02 0.02 0.02 0.02 0.03 0.04 0.07 0.10 0.09 0.10
0.00 0.00 0.00 0.00 0.00 0.00 0.00 0.00 0.00 0.00 0.00 0.00 0.00 0.01 0.01 0.01 0.01 0.01 0.01 0.01 0.00 0.00 0.00 0.00 0.00 0.01 0.02 0.02 0.01 0.01 0.00 0.00 0.01 0.02 0.02 0.02 0.02 0.02 0.04 0.07 0.10 0.09 0.12
0.00 0.00 0.00 0.00 0.00 0.00 0.00 0.00 0.00 0.00 0.00 0.00 0.01 0.01 0.02 0.02 0.01 0.01 0.02 0.03 0.04 0.03 0.04 0.05 0.04 0.04 0.04 0.03 0.02 0.01 0.01 0.01 0.01 0.01 0.01 0.01 0.01 0.01 0.02 0.02 0.04 0.04 0.12
0.00 0.00 0.00 0.00 0.00 0.00 0.00 0.00 0.00 0.00 0.00 0.00 0.00 0.00 0.01 0.01 0.00 0.01 0.02 0.04 0.06 0.09 0.18 0.08 0.01 0.01 0.03 0.02 0.02 0.01 0.01 0.00 0.00 0.00 0.00 0.00 0.01 0.01 0.01 0.01 0.02 0.03 0.05
0.00 0.00 0.00 0.00 0.00 0.01 0.01 0.01 0.01 0.01 0.00 0.00 0.00 0.01 0.02 0.03 0.04 0.05 0.06 0.07 0.07 0.12 0.19 0.04 0.01 0.02 0.01 0.02 0.02 0.01 0.00 0.00 0.00 0.00 0.00 0.00 0.01 0.01 0.01 0.01 0.01 0.01 0.01
0.00 0.00 0.00 0.00 0.01 0.01 0.01 0.02 0.03 0.04 0.04 0.02 0.01 0.01 0.01 0.02 0.03 0.04 0.05 0.13 0.16 0.10 0.09 0.04 0.02 0.01 0.02 0.03 0.03 0.02 0.01 0.01 0.01 0.00 0.00 0.00 0.00 0.00 0.01 0.01 0.01 0.01 0.00
0.00 0.00 0.00 0.01 0.01 0.02 0.03 0.04 0.05 0.06 0.06 0.04 0.02 0.01 0.00 0.00 0.02 0.03 0.05 0.20 0.15 0.08 0.04 0.04 0.02 0.02 0.02 0.03 0.04 0.04 0.02 0.01 0.00 0.00 0.00 0.00 0.00 0.00 0.00 0.00 0.00 0.00 0.00
0.00 0.00 0.01 0.03 0.03 0.03 0.04 0.05 0.06 0.08 0.09 0.07 0.05 0.04 0.03 0.08 0.10 0.09 0.12 0.15 0.14 0.05 0.03 0.04 0.04 0.06 0.06 0.04 0.04 0.05 0.04 0.01 0.01 0.00 0.00 0.00 0.00 0.00 0.00 0.00 0.00 0.00 0.00
0.01 0.01 0.02 0.04 0.04 0.05 0.06 0.07 0.08 0.12 0.12 0.10 0.07 0.05 0.08 0.18 0.19 0.17 0.17 0.16 0.12 0.08 0.06 0.05 0.04 0.05 0.05 0.06 0.05 0.05 0.04 0.02 0.01 0.00 0.00 0.00 0.01 0.01 0.00 0.00 0.00 0.00 0.00
0.01 0.02 0.03 0.05 0.06 0.06 0.06 0.07 0.09 0.09 0.08 0.10 0.12 0.15 0.20 0.25 0.19 0.14 0.13 0.11 0.11 0.12 0.11 0.15 0.15 0.10 0.08 0.10 0.09 0.08 0.04 0.03 0.02 0.01 0.00 0.00 0.01 0.01 0.00 0.00 0.00 0.00 0.00
0.03 0.04 0.03 0.03 0.04 0.06 0.09 0.11 0.14 0.15 0.15 0.16 0.16 0.14 0.11 0.16 0.16 0.13 0.12 0.11 0.13 0.15 0.14 0.17 0.16 0.11 0.07 0.08 0.10 0.11 0.07 0.02 0.02 0.04 0.02 0.00 0.01 0.01 0.00 0.00 0.00 0.00 0.00
0.04 0.04 0.06 0.07 0.09 0.13 0.14 0.15 0.19 0.24 0.26 0.23 0.18 0.17 0.16 0.15 0.16 0.15 0.13 0.13 0.13 0.11 0.09 0.12 0.13 0.12 0.11 0.10 0.11 0.12 0.11 0.06 0.07 0.07 0.06 0.03 0.01 0.00 0.00 0.00 0.00 0.00 0.00
0.06 0.10 0.12 0.14 0.18 0.21 0.25 0.27 0.24 0.17 0.16 0.16 0.16 0.16 0.14 0.13 0.14 0.14 0.14 0.13 0.12 0.11 0.10 0.09 0.08 0.06 0.06 0.10 0.10 0.05 0.05 0.10 0.12 0.11 0.10 0.05 0.01 0.00 0.00 0.00 0.00 0.00 0.00
0.09 0.12 0.13 0.16 0.19 0.20 0.19 0.17 0.16 0.13 0.13 0.12 0.12 0.12 0.11 0.10 0.09 0.09 0.08 0.10 0.10 0.10 0.08 0.08 0.07 0.06 0.07 0.08 0.11 0.10 0.08 0.11 0.13 0.13 0.12 0.07 0.03 0.02 0.01 0.00 0.00 0.00 0.00

GFSGL_prec_precacc24_057.txt.gz
Total_Precipitation_Accumulation
0.08 0.11 0.10 0.10 0.06 0.05 0.05 0.03 0.02 0.06 0.12 0.14 0.12 0.05 0.02 0.00 0.01 0.02 0.03 0.03 0.02 0.01 0.00 0.00 0.01 0.00 0.00 0.00 0.00 0.00 0.00 0.00 0.00 0.00 0.00 0.00 0.00 0.00 0.00 0.00 0.00 0.00 0.00
0.15 0.17 0.17 0.18 0.20 0.20 0.15 0.11 0.15 0.17 0.12 0.05 0.03 0.05 0.06 0.04 0.02 0.02 0.01 0.00 0.00 0.00 0.00 0.00 0.00 0.00 0.00 0.00 0.00 0.00 0.00 0.00 0.00 0.00 0.00 0.00 0.00 0.00 0.00 0.00 0.00 0.00 0.00
0.15 0.17 0.23 0.21 0.19 0.19 0.17 0.16 0.16 0.15 0.03 0.02 0.05 0.06 0.04 0.04 0.02 0.01 0.00 0.00 0.00 0.00 0.00 0.00 0.00 0.00 0.00 0.00 0.00 0.00 0.00 0.00 0.00 0.01 0.00 0.00 0.00 0.00 0.00 0.00 0.00 0.00 0.00
0.21 0.22 0.25 0.23 0.20 0.15 0.09 0.06 0.04 0.03 0.02 0.03 0.05 0.06 0.04 0.02 0.00 0.00 0.00 0.00 0.00 0.00 0.00 0.00 0.00 0.00 0.00 0.00 0.00 0.00 0.00 0.00 0.01 0.01 0.01 0.00 0.00 0.00 0.00 0.01 0.02 0.01 0.02
0.17 0.15 0.14 0.10 0.06 0.04 0.03 0.01 0.02 0.05 0.06 0.07 0.04 0.01 0.01 0.01 0.00 0.00 0.00 0.00 0.00 0.00 0.00 0.00 0.00 0.00 0.00 0.00 0.00 0.00 0.00 0.00 0.00 0.01 0.01 0.02 0.02 0.02 0.03 0.04 0.03 0.02 0.01
0.08 0.07 0.04 0.02 0.01 0.01 0.00 0.01 0.02 0.02 0.02 0.02 0.03 0.04 0.02 0.00 0.00 0.00 0.00 0.00 0.00 0.00 0.00 0.00 0.00 0.00 0.00 0.00 0.00 0.00 0.00 0.01 0.04 0.04 0.04 0.04 0.03 0.05 0.07 0.07 0.06 0.06 0.05
0.02 0.01 0.01 0.01 0.00 0.00 0.00 0.00 0.01 0.04 0.07 0.09 0.09 0.05 0.02 0.01 0.00 0.00 0.00 0.00 0.00 0.00 0.00 0.00 0.00 0.00 0.00 0.00 0.00 0.00 0.01 0.01 0.04 0.05 0.08 0.07 0.08 0.06 0.05 0.05 0.05 0.08 0.08
0.00 0.00 0.00 0.00 0.00 0.00 0.01 0.05 0.10 0.12 0.14 0.09 0.03 0.01 0.00 0.00 0.00 0.00 0.00 0.00 0.00 0.00 0.00 0.00 0.00 0.00 0.00 0.00 0.01 0.01 0.01 0.01 0.01 0.02 0.06 0.04 0.03 0.04 0.05 0.07 0.10 0.09 0.04
0.00 0.00 0.00 0.00 0.00 0.04 0.11 0.18 0.16 0.09 0.02 0.00 0.01 0.01 0.01 0.01 0.00 0.00 0.00 0.00 0.00 0.00 0.00 0.00 0.00 0.00 0.00 0.00 0.01 0.02 0.01 0.00 0.00 0.00 0.00 0.00 0.00 0.01 0.03 0.09 0.09 0.11 0.09
0.00 0.00 0.00 0.04 0.18 0.23 0.14 0.04 0.00 0.00 0.00 0.00 0.00 0.00 0.00 0.00 0.00 0.00 0.00 0.00 0.00 0.00 0.00 0.00 0.00 0.00 0.00 0.00 0.01 0.01 0.02 0.01 0.00 0.00 0.01 0.00 0.01 0.03 0.03 0.07 0.11 0.17 0.12
0.01 0.08 0.15 0.15 0.06 0.00 0.00 0.00 0.00 0.00 0.00 0.00 0.00 0.00 0.00 0.00 0.00 0.00 0.00 0.00 0.00 0.00 0.00 0.00 0.00 0.00 0.00 0.00 0.00 0.00 0.01 0.00 0.00 0.01 0.01 0.01 0.01 0.02 0.03 0.05 0.08 0.14 0.17
0.05 0.03 0.00 0.00 0.00 0.00 0.00 0.00 0.00 0.00 0.00 0.00 0.00 0.00 0.00 0.00 0.00 0.00 0.00 0.00 0.00 0.00 0.00 0.00 0.00 0.00 0.00 0.00 0.00 0.00 0.00 0.00 0.01 0.01 0.01 0.02 0.01 0.01 0.01 0.02 0.05 0.08 0.10
0.00 0.00 0.00 0.00 0.00 0.00 0.00 0.00 0.00 0.00 0.00 0.00 0.00 0.01 0.01 0.01 0.01 0.00 0.00 0.00 0.00 0.00 0.00 0.00 0.00 0.00 0.01 0.01 0.00 0.00 0.01 0.02 0.01 0.02 0.02 0.01 0.01 0.02 0.02 0.05 0.08 0.07 0.08
0.00 0.00 0.00 0.00 0.00 0.00 0.00 0.00 0.00 0.00 0.00 0.00 0.00 0.01 0.01 0.01 0.01 0.01 0.02 0.01 0.01 0.01 0.01 0.02 0.01 0.02 0.03 0.03 0.03 0.03 0.04 0.02 0.01 0.01 0.01 0.01 0.01 0.01 0.02 0.03 0.05 0.04 0.09
0.00 0.00 0.00 0.00 0.00 0.00 0.00 0.00 0.00 0.00 0.00 0.00 0.01 0.01 0.02 0.02 0.01 0.01 0.02 0.03 0.05 0.05 0.08 0.12 0.10 0.08 0.07 0.06 0.05 0.03 0.03 0.05 0.04 0.02 0.01 0.01 0.01 0.00 0.01 0.01 0.02 0.03 0.08
0.00 0.00 0.00 0.00 0.00 0.00 0.00 0.00 0.00 0.00 0.00 0.00 0.00 0.00 0.01 0.01 0.00 0.01 0.02 0.04 0.07 0.10 0.23 0.19 0.09 0.07 0.07 0.04 0.02 0.01 0.02 0.02 0.01 0.01 0.02 0.01 0.01 0.01 0.01 0.01 0.01 0.02 0.03
0.00 0.00 0.00 0.00 0.00 0.00 0.01 0.01 0.01 0.01 0.00 0.00 0.00 0.01 0.01 0.03 0.04 0.05 0.06 0.07 0.07 0.13 0.22 0.11 0.07 0.06 0.05 0.05 0.03 0.02 0.01 0.00 0.02 0.02 0.01 0.01 0.01 0.00 0.01 0.01 0.01 0.01 0.01
0.00 0.00 0.00 0.00 0.00 0.01 0.01 0.02 0.03 0.04 0.04 0.02 0.01 0.01 0.01 0.01 0.03 0.04 0.05 0.13 0.17 0.11 0.11 0.08 0.06 0.05 0.04 0.04 0.03 0.03 0.03 0.03 0.04 0.01 0.00 0.00 0.01 0.00 0.00 0.01 0.01 0.01 0.00
0.00 0.00 0.00 0.00 0.00 0.01 0.03 0.04 0.05 0.06 0.06 0.04 0.02 0.01 0.00 0.00 0.01 0.02 0.05 0.21 0.18 0.15 0.14 0.15 0.12 0.07 0.03 0.04 0.06 0.07 0.07 0.05 0.03 0.01 0.01 0.00 0.00 0.00 0.00 0.00 0.00 0.00 0.00
0.00 0.00 0.00 0.02 0.02 0.03 0.03 0.05 0.06 0.08 0.08 0.06 0.05 0.04 0.03 0.08 0.10 0.09 0.12 0.16 0.18 0.12 0.07 0.07 0.05 0.07 0.08 0.06 0.06 0.07 0.07 0.04 0.03 0.01 0.00 0.00 0.00 0.00 0.00 0.00 0.00 0.00 0.00
0.01 0.01 0.01 0.03 0.04 0.04 0.05 0.07 0.08 0.12 0.12 0.09 0.07 0.05 0.08 0.18 0.19 0.17 0.17 0.18 0.14 0.10 0.08 0.07 0.06 0.06 0.07 0.09 0.08 0.08 0.06 0.05 0.03 0.01 0.00 0.01 0.01 0.01 0.00 0.00 0.00 0.00 0.00
0.01 0.01 0.03 0.04 0.05 0.05 0.05 0.07 0.09 0.09 0.08 0.10 0.12 0.15 0.20 0.25 0.19 0.15 0.13 0.12 0.13 0.16 0.16 0.19 0.18 0.14 0.12 0.14 0.14 0.13 0.08 0.06 0.05 0.03 0.02 0.01 0.01 0.01 0.01 0.00 0.00 0.00 0.00
0.03 0.03 0.03 0.03 0.03 0.05 0.08 0.10 0.14 0.15 0.15 0.16 0.16 0.14 0.11 0.16 0.16 0.14 0.12 0.11 0.13 0.17 0.17 0.20 0.19 0.13 0.09 0.10 0.13 0.16 0.13 0.06 0.06 0.08 0.06 0.02 0.01 0.01 0.01 0.00 0.00 0.00 0.00
0.03 0.04 0.05 0.06 0.09 0.12 0.13 0.14 0.19 0.24 0.26 0.23 0.18 0.17 0.16 0.15 0.16 0.16 0.13 0.13 0.13 0.12 0.11 0.14 0.14 0.14 0.12 0.11 0.11 0.14 0.15 0.13 0.15 0.13 0.12 0.08 0.03 0.01 0.01 0.00 0.00 0.00 0.00
0.06 0.09 0.10 0.12 0.16 0.20 0.24 0.25 0.22 0.16 0.14 0.15 0.15 0.15 0.13 0.13 0.14 0.14 0.14 0.13 0.12 0.11 0.10 0.10 0.10 0.07 0.07 0.10 0.10 0.07 0.07 0.13 0.18 0.17 0.18 0.10 0.04 0.03 0.02 0.01 0.00 0.00 0.00
0.09 0.11 0.12 0.14 0.18 0.19 0.18 0.15 0.14 0.12 0.11 0.10 0.10 0.09 0.09 0.09 0.09 0.09 0.08 0.10 0.10 0.10 0.08 0.08 0.07 0.07 0.08 0.08 0.11 0.10 0.08 0.12 0.15 0.16 0.18 0.14 0.07 0.04 0.04 0.02 0.01 0.00 0.00

GFSGL_prec_precacc24_060.txt.gz
Total_Precipitation_Accumulation
0.08 0.11 0.11 0.14 0.12 0.10 0.08 0.07 0.05 0.08 0.14 0.18 0.14 0.10 0.09 0.08 0.06 0.03 0.03 0.04 0.04 0.01 0.00 0.00 0.01 0.00 0.00 0.00 0.00 0.00 0.00 0.00 0.00 0.00 0.00 0.00 0.00 0.00 0.00 0.00 0.00 0.00 0.00
0.15 0.18 0.19 0.23 0.25 0.25 0.20 0.15 0.16 0.18 0.16 0.14 0.22 0.20 0.09 0.06 0.05 0.06 0.07 0.02 0.00 0.00 0.00 0.00 0.00 0.00 0.00 0.00 0.00 0.00 0.00 0.00 0.00 0.00 0.00 0.00 0.00 0.00 0.00 0.00 0.00 0.00 0.00
0.15 0.18 0.24 0.24 0.23 0.23 0.21 0.21 0.29 0.47 0.52 0.43 0.27 0.15 0.07 0.07 0.08 0.06 0.03 0.01 0.00 0.00 0.00 0.00 0.00 0.00 0.00 0.00 0.00 0.00 0.00 0.00 0.00 0.00 0.00 0.00 0.00 0.00 0.00 0.00 0.00 0.00 0.00
0.21 0.23 0.27 0.26 0.22 0.17 0.13 0.14 0.17 0.16 0.12 0.07 0.06 0.09 0.13 0.12 0.06 0.02 0.00 0.00 0.00 0.00 0.00 0.00 0.00 0.00 0.00 0.00 0.00 0.00 0.00 0.00 0.00 0.00 0.00 0.00 0.00 0.00 0.00 0.01 0.01 0.00 0.01
0.19 0.16 0.15 0.10 0.06 0.04 0.03 0.02 0.03 0.05 0.06 0.07 0.07 0.06 0.05 0.06 0.04 0.01 0.00 0.00 0.00 0.00 0.00 0.00 0.00 0.00 0.00 0.00 0.00 0.00 0.00 0.00 0.00 0.00 0.01 0.01 0.01 0.01 0.02 0.03 0.02 0.02 0.01
0.10 0.08 0.04 0.02 0.01 0.01 0.00 0.02 0.03 0.02 0.02 0.03 0.05 0.08 0.08 0.04 0.02 0.01 0.00 0.00 0.00 0.00 0.00 0.00 0.00 0.00 0.00 0.00 0.00 0.00 0.00 0.00 0.03 0.03 0.03 0.03 0.02 0.04 0.05 0.04 0.04 0.04 0.04
0.02 0.01 0.01 0.01 0.00 0.00 0.01 0.00 0.01 0.04 0.07 0.12 0.14 0.10 0.04 0.02 0.01 0.00 0.00 0.00 0.00 0.00 0.00 0.00 0.00 0.00 0.00 0.00 0.00 0.00 0.00 0.01 0.02 0.03 0.05 0.05 0.07 0.04 0.03 0.03 0.03 0.05 0.06
0.00 0.00 0.00 0.00 0.00 0.00 0.01 0.05 0.10 0.13 0.16 0.13 0.05 0.01 0.01 0.00 0.00 0.00 0.00 0.00 0.00 0.00 0.00 0.00 0.00 0.00 0.00 0.00 0.00 0.00 0.00 0.00 0.00 0.01 0.02 0.01 0.00 0.00 0.01 0.04 0.08 0.07 0.02
0.00 0.00 0.00 0.00 0.00 0.04 0.12 0.19 0.18 0.10 0.02 0.00 0.00 0.01 0.01 0.01 0.00 0.00 0.00 0.00 0.00 0.00 0.00 0.00 0.00 0.00 0.00 0.00 0.00 0.00 0.00 0.00 0.00 0.00 0.00 0.00 0.00 0.00 0.01 0.06 0.06 0.08 0.06
0.00 0.00 0.00 0.04 0.18 0.23 0.15 0.05 0.00 0.00 0.00 0.00 0.00 0.00 0.00 0.00 0.00 0.00 0.00 0.00 0.00 0.00 0.00 0.00 0.00 0.00 0.00 0.00 0.00 0.01 0.00 0.00 0.00 0.00 0.00 0.00 0.00 0.01 0.02 0.04 0.09 0.15 0.11
0.01 0.08 0.15 0.15 0.06 0.00 0.00 0.00 0.00 0.00 0.00 0.00 0.00 0.00 0.00 0.00 0.00 0.00 0.00 0.00 0.00 0.00 0.00 0.00 0.00 0.00 0.00 0.00 0.00 0.01 0.00 0.00 0.00 0.00 0.00 0.01 0.01 0.01 0.01 0.02 0.03 0.10 0.15
0.05 0.03 0.00 0.00 0.00 0.00 0.00 0.00 0.00 0.00 0.00 0.00 0.00 0.00 0.00 0.00 0.00 0.00 0.00 0.00 0.00 0.00 0.00 0.00 0.00 0.00 0.00 0.00 0.00 0.00 0.00 0.00 0.01 0.01 0.01 0.01 0.01 0.01 0.00 0.01 0.03 0.04 0.08
0.00 0.00 0.00 0.00 0.00 0.00 0.00 0.00 0.00 0.00 0.00 0.00 0.00 0.01 0.01 0.01 0.01 0.00 0.00 0.00 0.00 0.00 0.01 0.01 0.00 0.00 0.02 0.02 0.01 0.00 0.02 0.05 0.05 0.05 0.02 0.01 0.01 0.01 0.01 0.02 0.03 0.04 0.06
0.00 0.00 0.00 0.00 0.00 0.00 0.00 0.00 0.00 0.00 0.00 0.00 0.00 0.00 0.00 0.00 0.00 0.01 0.01 0.01 0.01 0.01 0.02 0.02 0.02 0.04 0.05 0.06 0.07 0.08 0.12 0.12 0.07 0.04 0.01 0.01 0.01 0.01 0.01 0.01 0.02 0.01 0.05
0.00 0.00 0.00 0.00 0.00 0.00 0.00 0.00 0.00 0.00 0.00 0.00 0.00 0.01 0.02 0.02 0.01 0.01 0.02 0.03 0.05 0.05 0.09 0.13 0.11 0.09 0.09 0.08 0.08 0.08 0.08 0.08 0.08 0.04 0.04 0.03 0.02 0.01 0.01 0.01 0.01 0.01 0.03
0.00 0.00 0.00 0.00 0.00 0.00 0.00 0.00 0.00 0.00 0.00 0.00 0.00 0.00 0.00 0.01 0.00 0.01 0.02 0.04 0.07 0.10 0.24 0.20 0.11 0.08 0.09 0.07 0.08 0.05 0.04 0.03 0.02 0.02 0.03 0.03 0.02 0.02 0.01 0.01 0.01 0.01 0.01
0.00 0.00 0.00 0.00 0.00 0.00 0.00 0.00 0.01 0.00 0.00 0.00 0.00 0.01 0.01 0.02 0.04 0.05 0.06 0.07 0.07 0.13 0.24 0.12 0.09 0.09 0.08 0.08 0.09 0.08 0.07 0.02 0.02 0.03 0.02 0.01 0.02 0.02 0.02 0.02 0.02 0.01 0.01
0.00 0.00 0.00 0.00 0.00 0.00 0.00 0.01 0.02 0.03 0.03 0.02 0.01 0.01 0.01 0.01 0.03 0.04 0.04 0.13 0.16 0.11 0.12 0.10 0.11 0.12 0.15 0.16 0.12 0.07 0.05 0.05 0.06 0.03 0.03 0.02 0.02 0.02 0.01 0.01 0.01 0.01 0.01
0.00 0.00 0.00 0.00 0.00 0.01 0.02 0.03 0.04 0.05 0.05 0.03 0.02 0.01 0.00 0.00 0.01 0.02 0.04 0.20 0.18 0.15 0.15 0.15 0.15 0.13 0.10 0.10 0.11 0.10 0.09 0.08 0.07 0.05 0.03 0.02 0.02 0.02 0.01 0.01 0.01 0.00 0.00
0.00 0.00 0.00 0.01 0.02 0.02 0.03 0.04 0.05 0.07 0.08 0.06 0.05 0.03 0.03 0.07 0.09 0.08 0.10 0.15 0.17 0.12 0.07 0.07 0.07 0.09 0.10 0.09 0.09 0.11 0.11 0.07 0.05 0.03 0.02 0.03 0.03 0.01 0.01 0.00 0.01 0.01 0.00
0.01 0.01 0.01 0.03 0.03 0.04 0.05 0.06 0.07 0.12 0.11 0.09 0.07 0.05 0.07 0.17 0.18 0.16 0.16 0.17 0.13 0.10 0.08 0.07 0.06 0.07 0.08 0.10 0.10 0.10 0.09 0.07 0.06 0.03 0.02 0.04 0.04 0.02 0.01 0.01 0.01 0.00 0.00
0.01 0.01 0.02 0.04 0.04 0.05 0.05 0.06 0.08 0.09 0.08 0.10 0.12 0.15 0.20 0.25 0.19 0.14 0.12 0.12 0.13 0.15 0.16 0.19 0.18 0.15 0.14 0.17 0.17 0.16 0.11 0.09 0.10 0.09 0.06 0.05 0.04 0.02 0.01 0.01 0.01 0.01 0.00
0.02 0.03 0.02 0.02 0.02 0.04 0.07 0.10 0.13 0.14 0.14 0.16 0.16 0.14 0.11 0.15 0.15 0.13 0.12 0.11 0.13 0.17 0.17 0.21 0.19 0.14 0.11 0.13 0.16 0.18 0.15 0.08 0.09 0.14 0.13 0.08 0.05 0.03 0.02 0.01 0.01 0.00 0.00
0.03 0.04 0.05 0.06 0.08 0.10 0.12 0.13 0.17 0.22 0.25 0.21 0.17 0.16 0.15 0.15 0.16 0.15 0.13 0.13 0.13 0.11 0.11 0.14 0.14 0.14 0.13 0.12 0.13 0.16 0.16 0.14 0.16 0.16 0.18 0.14 0.07 0.04 0.03 0.02 0.01 0.00 0.00
0.05 0.08 0.09 0.11 0.15 0.17 0.22 0.24 0.20 0.14 0.12 0.13 0.13 0.13 0.11 0.11 0.11 0.13 0.13 0.12 0.12 0.11 0.10 0.10 0.09 0.08 0.08 0.11 0.12 0.08 0.08 0.14 0.20 0.21 0.24 0.16 0.09 0.06 0.05 0.04 0.02 0.01 0.00
0.07 0.10 0.11 0.13 0.17 0.17 0.16 0.14 0.12 0.10 0.09 0.08 0.08 0.08 0.07 0.07 0.06 0.06 0.06 0.08 0.09 0.09 0.08 0.08 0.07 0.07 0.08 0.09 0.12 0.11 0.09 0.13 0.16 0.18 0.23 0.19 0.12 0.08 0.07 0.06 0.04 0.01 0.00

GFSGL_prec_precacc24_063.txt.gz
Total_Precipitation_Accumulation
0.08 0.11 0.12 0.18 0.16 0.15 0.16 0.13 0.09 0.11 0.17 0.21 0.15 0.13 0.20 0.20 0.14 0.07 0.06 0.08 0.07 0.04 0.01 0.00 0.00 0.00 0.00 0.00 0.00 0.00 0.00 0.00 0.00 0.00 0.00 0.00 0.00 0.00 0.00 0.00 0.00 0.00 0.00
0.15 0.18 0.20 0.23 0.26 0.27 0.23 0.17 0.19 0.20 0.17 0.18 0.37 0.48 0.31 0.17 0.14 0.12 0.10 0.06 0.04 0.02 0.01 0.00 0.00 0.00 0.00 0.00 0.00 0.00 0.00 0.00 0.00 0.00 0.00 0.00 0.00 0.00 0.00 0.00 0.00 0.00 0.00
0.15 0.18 0.24 0.24 0.24 0.24 0.22 0.21 0.30 0.48 0.61 0.61 0.49 0.33 0.19 0.14 0.13 0.12 0.10 0.07 0.03 0.01 0.00 0.00 0.00 0.00 0.00 0.00 0.00 0.00 0.00 0.00 0.00 0.00 0.00 0.00 0.00 0.00 0.00 0.00 0.00 0.00 0.00
0.21 0.23 0.29 0.29 0.23 0.18 0.14 0.14 0.18 0.17 0.14 0.10 0.09 0.10 0.14 0.13 0.09 0.08 0.05 0.02 0.00 0.00 0.00 0.00 0.00 0.00 0.00 0.00 0.00 0.00 0.00 0.00 0.00 0.00 0.00 0.00 0.00 0.00 0.00 0.00 0.01 0.00 0.00
0.19 0.18 0.18 0.13 0.08 0.06 0.04 0.02 0.03 0.05 0.07 0.07 0.07 0.06 0.05 0.07 0.08 0.06 0.02 0.00 0.00 0.00 0.00 0.00 0.00 0.00 0.00 0.00 0.00 0.00 0.00 0.00 0.00 0.00 0.00 0.01 0.01 0.00 0.01 0.02 0.01 0.00 0.00
0.12 0.14 0.10 0.07 0.02 0.01 0.00 0.02 0.03 0.03 0.02 0.03 0.05 0.09 0.09 0.06 0.04 0.02 0.00 0.00 0.00 0.00 0.00 0.00 0.00 0.00 0.00 0.00 0.00 0.00 0.00 0.00 0.01 0.01 0.02 0.01 0.01 0.03 0.03 0.02 0.01 0.01 0.02
0.05 0.02 0.01 0.01 0.01 0.00 0.01 0.00 0.01 0.04 0.07 0.12 0.15 0.11 0.04 0.01 0.01 0.00 0.00 0.00 0.00 0.00 0.00 0.00 0.00 0.00 0.00 0.00 0.00 0.00 0.00 0.00 0.00 0.01 0.02 0.03 0.04 0.02 0.02 0.01 0.00 0.02 0.03
0.00 0.00 0.00 0.00 0.00 0.00 0.01 0.05 0.10 0.13 0.16 0.13 0.04 0.01 0.00 0.00 0.00 0.00 0.00 0.00 0.00 0.00 0.00 0.00 0.00 0.00 0.00 0.00 0.00 0.01 0.01 0.01 0.01 0.00 0.01 0.00 0.00 0.00 0.00 0.02 0.05 0.05 0.00
0.00 0.00 0.00 0.00 0.00 0.04 0.12 0.19 0.18 0.10 0.02 0.00 0.00 0.00 0.00 0.01 0.00 0.00 0.00 0.00 0.00 0.00 0.00 0.00 0.00 0.00 0.00 0.00 0.01 0.01 0.01 0.02 0.02 0.02 0.00 0.00 0.00 0.00 0.01 0.04 0.04 0.05 0.03
0.00 0.00 0.00 0.04 0.18 0.23 0.15 0.05 0.00 0.00 0.00 0.00 0.00 0.00 0.00 0.00 0.00 0.00 0.00 0.00 0.00 0.00 0.00 0.00 0.00 0.00 0.00 0.00 0.02 0.03 0.03 0.02 0.04 0.04 0.02 0.00 0.00 0.00 0.02 0.02 0.05 0.10 0.08
0.01 0.08 0.15 0.15 0.06 0.00 0.00 0.00 0.00 0.00 0.00 0.00 0.00 0.00 0.00 0.00 0.00 0.00 0.00 0.00 0.00 0.00 0.00 0.00 0.00 0.00 0.00 0.00 0.01 0.03 0.02 0.02 0.04 0.04 0.03 0.01 0.01 0.00 0.00 0.00 0.00 0.04 0.09
0.05 0.03 0.00 0.00 0.00 0.00 0.00 0.00 0.00 0.00 0.00 0.00 0.00 0.00 0.00 0.00 0.00 0.00 0.00 0.00 0.00 0.00 0.00 0.00 0.00 0.00 0.00 0.00 0.01 0.01 0.01 0.01 0.03 0.05 0.05 0.02 0.00 0.00 0.00 0.00 0.01 0.01 0.05
0.00 0.00 0.00 0.00 0.00 0.00 0.00 0.00 0.00 0.00 0.00 0.00 0.00 0.00 0.00 0.00 0.00 0.00 0.00 0.00 0.00 0.00 0.01 0.01 0.00 0.00 0.02 0.02 0.01 0.01 0.03 0.09 0.12 0.14 0.08 0.04 0.01 0.01 0.01 0.00 0.00 0.00 0.01
0.00 0.00 0.00 0.00 0.00 0.00 0.00 0.00 0.00 0.00 0.00 0.00 0.00 0.00 0.00 0.00 0.00 0.00 0.01 0.01 0.00 0.01 0.02 0.02 0.02 0.04 0.05 0.07 0.07 0.09 0.14 0.15 0.12 0.09 0.06 0.03 0.03 0.02 0.01 0.01 0.01 0.01 0.01
0.00 0.00 0.00 0.00 0.00 0.00 0.00 0.00 0.00 0.00 0.00 0.00 0.00 0.00 0.01 0.01 0.00 0.00 0.02 0.03 0.05 0.05 0.09 0.14 0.12 0.10 0.10 0.09 0.10 0.09 0.10 0.11 0.13 0.10 0.11 0.09 0.06 0.04 0.03 0.01 0.02 0.01 0.02
0.00 0.00 0.00 0.00 0.00 0.00 0.00 0.00 0.00 0.00 0.00 0.00 0.00 0.00 0.00 0.00 0.00 0.01 0.02 0.04 0.07 0.10 0.24 0.21 0.12 0.10 0.11 0.09 0.10 0.08 0.08 0.07 0.05 0.05 0.06 0.05 0.05 0.04 0.03 0.03 0.02 0.03 0.01
0.00 0.00 0.00 0.00 0.00 0.00 0.00 0.00 0.00 0.00 0.00 0.00 0.00 0.01 0.01 0.02 0.04 0.05 0.06 0.07 0.07 0.13 0.24 0.12 0.09 0.10 0.10 0.10 0.12 0.14 0.15 0.08 0.06 0.07 0.03 0.03 0.04 0.04 0.04 0.04 0.04 0.02 0.01
0.00 0.00 0.00 0.00 0.00 0.00 0.00 0.01 0.01 0.01 0.02 0.01 0.00 0.01 0.01 0.01 0.03 0.04 0.04 0.12 0.16 0.10 0.12 0.10 0.12 0.12 0.16 0.19 0.20 0.19 0.16 0.13 0.11 0.05 0.04 0.04 0.05 0.04 0.05 0.04 0.02 0.03 0.01
0.00 0.00 0.00 0.00 0.00 0.01 0.02 0.02 0.03 0.04 0.04 0.03 0.01 0.00 0.00 0.00 0.01 0.02 0.04 0.19 0.17 0.14 0.14 0.15 0.15 0.13 0.10 0.11 0.14 0.15 0.15 0.13 0.11 0.08 0.06 0.05 0.05 0.05 0.05 0.03 0.02 0.01 0.01
0.00 0.00 0.00 0.01 0.01 0.02 0.03 0.03 0.04 0.06 0.06 0.05 0.04 0.03 0.02 0.07 0.08 0.07 0.10 0.14 0.17 0.11 0.07 0.07 0.07 0.09 0.11 0.10 0.11 0.14 0.14 0.11 0.11 0.09 0.06 0.06 0.05 0.04 0.05 0.03 0.02 0.02 0.01
0.00 0.00 0.01 0.02 0.03 0.04 0.04 0.05 0.06 0.10 0.09 0.08 0.05 0.04 0.07 0.17 0.18 0.16 0.15 0.15 0.12 0.09 0.08 0.07 0.06 0.07 0.08 0.11 0.11 0.12 0.11 0.10 0.09 0.08 0.08 0.08 0.08 0.07 0.04 0.04 0.02 0.01 0.01
0.00 0.01 0.02 0.02 0.02 0.03 0.03 0.04 0.06 0.07 0.06 0.08 0.11 0.14 0.20 0.24 0.19 0.14 0.12 0.11 0.11 0.14 0.16 0.19 0.18 0.15 0.14 0.17 0.18 0.18 0.14 0.12 0.13 0.12 0.09 0.09 0.10 0.09 0.07 0.04 0.03 0.02 0.01
0.02 0.02 0.01 0.01 0.01 0.03 0.05 0.07 0.10 0.11 0.12 0.14 0.14 0.12 0.09 0.14 0.14 0.13 0.12 0.10 0.12 0.16 0.17 0.20 0.19 0.14 0.10 0.13 0.17 0.20 0.17 0.11 0.13 0.17 0.15 0.11 0.09 0.09 0.08 0.05 0.03 0.02 0.01
0.02 0.03 0.04 0.05 0.06 0.09 0.09 0.11 0.15 0.20 0.22 0.19 0.15 0.14 0.13 0.13 0.14 0.14 0.12 0.12 0.12 0.10 0.09 0.13 0.14 0.14 0.13 0.12 0.13 0.16 0.18 0.16 0.19 0.18 0.21 0.17 0.11 0.09 0.10 0.07 0.03 0.01 0.01
0.02 0.05 0.06 0.09 0.12 0.16 0.20 0.22 0.18 0.12 0.10 0.10 0.11 0.11 0.09 0.08 0.09 0.10 0.10 0.09 0.08 0.08 0.08 0.08 0.09 0.08 0.08 0.11 0.12 0.09 0.10 0.16 0.21 0.23 0.25 0.18 0.12 0.11 0.11 0.10 0.06 0.03 0.01
0.02 0.05 0.07 0.10 0.15 0.14 0.12 0.09 0.08 0.06 0.06 0.06 0.06 0.06 0.06 0.06 0.05 0.05 0.04 0.05 0.05 0.06 0.05 0.05 0.06 0.06 0.08 0.09 0.12 0.12 0.10 0.14 0.17 0.20 0.24 0.21 0.15 0.12 0.12 0.12 0.08 0.05 0.01

GFSGL_prec_precacc24_066.txt.gz
Total_Precipitation_Accumulation
0.08 0.11 0.13 0.23 0.23 0.35 0.50 0.28 0.16 0.19 0.25 0.26 0.18 0.14 0.23 0.31 0.28 0.19 0.15 0.14 0.12 0.07 0.04 0.03 0.01 0.00 0.00 0.00 0.00 0.00 0.00 0.00 0.00 0.00 0.00 0.00 0.00 0.00 0.00 0.00 0.00 0.00 0.00
0.16 0.36 0.35 0.58 0.51 0.33 0.37 0.29 0.28 0.28 0.23 0.20 0.38 0.49 0.35 0.22 0.18 0.18 0.14 0.08 0.06 0.04 0.03 0.01 0.00 0.00 0.00 0.00 0.00 0.00 0.00 0.00 0.00 0.00 0.00 0.00 0.00 0.00 0.00 0.00 0.00 0.00 0.00
0.32 0.45 0.35 0.52 0.26 0.25 0.25 0.26 0.34 0.53 0.65 0.63 0.51 0.37 0.24 0.18 0.15 0.12 0.10 0.07 0.04 0.01 0.00 0.00 0.00 0.00 0.00 0.00 0.00 0.00 0.00 0.00 0.00 0.00 0.00 0.00 0.00 0.00 0.00 0.00 0.00 0.00 0.00
0.24 0.27 0.34 0.33 0.25 0.24 0.16 0.21 0.21 0.19 0.16 0.11 0.10 0.11 0.14 0.13 0.09 0.08 0.06 0.03 0.01 0.00 0.00 0.00 0.00 0.00 0.00 0.00 0.00 0.00 0.00 0.00 0.00 0.00 0.00 0.00 0.00 0.00 0.00 0.00 0.00 0.00 0.00
0.22 0.20 0.21 0.18 0.18 0.09 0.06 0.06 0.05 0.06 0.07 0.07 0.07 0.06 0.05 0.07 0.09 0.06 0.02 0.00 0.00 0.00 0.00 0.00 0.00 0.00 0.00 0.00 0.00 0.00 0.00 0.00 0.00 0.00 0.00 0.00 0.00 0.00 0.01 0.02 0.01 0.00 0.00
0.14 0.17 0.13 0.13 0.09 0.05 0.04 0.02 0.03 0.03 0.02 0.03 0.05 0.09 0.09 0.06 0.06 0.02 0.00 0.00 0.00 0.00 0.00 0.00 0.00 0.00 0.00 0.00 0.00 0.00 0.00 0.00 0.00 0.00 0.00 0.01 0.00 0.02 0.02 0.01 0.01 0.00 0.01
0.09 0.08 0.07 0.06 0.04 0.02 0.01 0.01 0.01 0.04 0.07 0.12 0.15 0.11 0.04 0.01 0.01 0.00 0.00 0.00 0.00 0.00 0.00 0.00 0.00 0.00 0.00 0.00 0.00 0.00 0.00 0.00 0.00 0.01 0.01 0.01 0.02 0.01 0.01 0.01 0.01 0.02 0.02
0.01 0.01 0.01 0.00 0.00 0.00 0.01 0.05 0.10 0.13 0.16 0.13 0.04 0.01 0.00 0.00 0.00 0.00 0.00 0.00 0.00 0.00 0.00 0.00 0.00 0.00 0.00 0.00 0.00 0.01 0.01 0.02 0.01 0.01 0.01 0.01 0.01 0.01 0.01 0.02 0.05 0.04 0.00
0.00 0.00 0.00 0.00 0.00 0.04 0.12 0.19 0.18 0.10 0.02 0.00 0.00 0.00 0.00 0.00 0.00 0.00 0.00 0.00 0.00 0.00 0.00 0.00 0.00 0.00 0.00 0.00 0.01 0.01 0.01 0.02 0.03 0.05 0.04 0.02 0.01 0.00 0.00 0.03 0.03 0.04 0.02
0.00 0.00 0.00 0.04 0.18 0.23 0.15 0.05 0.00 0.00 0.00 0.00 0.00 0.00 0.00 0.00 0.00 0.00 0.00 0.00 0.00 0.00 0.00 0.00 0.00 0.00 0.00 0.00 0.02 0.03 0.03 0.02 0.04 0.06 0.06 0.03 0.02 0.02 0.02 0.01 0.01 0.03 0.03
0.01 0.08 0.15 0.15 0.06 0.00 0.00 0.00 0.00 0.00 0.00 0.00 0.00 0.00 0.00 0.00 0.00 0.00 0.00 0.00 0.00 0.00 0.00 0.00 0.00 0.00 0.00 0.00 0.01 0.03 0.03 0.02 0.05 0.05 0.05 0.05 0.04 0.01 0.00 0.00 0.00 0.02 0.05
0.04 0.03 0.00 0.00 0.00 0.00 0.00 0.00 0.00 0.00 0.00 0.00 0.00 0.00 0.00 0.00 0.00 0.00 0.00 0.00 0.00 0.00 0.00 0.00 0.00 0.00 0.00 0.00 0.01 0.01 0.01 0.01 0.03 0.06 0.06 0.04 0.04 0.04 0.01 0.00 0.00 0.00 0.00
0.00 0.00 0.00 0.00 0.00 0.00 0.00 0.00 0.00 0.00 0.00 0.00 0.00 0.00 0.00 0.00 0.00 0.00 0.00 0.00 0.00 0.00 0.00 0.01 0.00 0.00 0.02 0.02 0.01 0.01 0.03 0.09 0.12 0.14 0.11 0.07 0.04 0.03 0.03 0.04 0.02 0.00 0.00
0.00 0.00 0.00 0.00 0.00 0.00 0.00 0.00 0.00 0.00 0.00 0.00 0.00 0.00 0.00 0.00 0.00 0.00 0.00 0.00 0.00 0.01 0.01 0.02 0.02 0.04 0.06 0.07 0.07 0.09 0.14 0.15 0.13 0.10 0.06 0.05 0.06 0.07 0.06 0.05 0.02 0.01 0.01
0.00 0.00 0.00 0.00 0.00 0.00 0.00 0.00 0.00 0.00 0.00 0.00 0.00 0.00 0.00 0.01 0.00 0.00 0.01 0.01 0.03 0.04 0.08 0.14 0.12 0.10 0.10 0.09 0.10 0.10 0.11 0.12 0.14 0.11 0.12 0.13 0.15 0.17 0.13 0.05 0.03 0.02 0.02
0.00 0.00 0.00 0.00 0.00 0.00 0.00 0.00 0.00 0.00 0.00 0.00 0.00 0.00 0.00 0.00 0.00 0.01 0.02 0.04 0.07 0.10 0.24 0.21 0.12 0.10 0.11 0.09 0.10 0.08 0.08 0.08 0.06 0.07 0.09 0.09 0.11 0.11 0.07 0.04 0.04 0.03 0.02
0.00 0.00 0.00 0.00 0.00 0.00 0.00 0.00 0.00 0.00 0.00 0.00 0.00 0.01 0.01 0.02 0.04 0.05 0.05 0.06 0.07 0.13 0.23 0.12 0.09 0.10 0.10 0.11 0.12 0.15 0.18 0.17 0.18 0.16 0.12 0.11 0.09 0.05 0.05 0.05 0.05 0.03 0.02
0.00 0.00 0.00 0.00 0.00 0.00 0.00 0.00 0.01 0.01 0.02 0.01 0.00 0.01 0.01 0.01 0.03 0.04 0.04 0.11 0.15 0.09 0.11 0.10 0.11 0.12 0.15 0.19 0.20 0.20 0.18 0.17 0.18 0.15 0.12 0.07 0.06 0.06 0.07 0.05 0.05 0.05 0.03
0.00 0.00 0.00 0.00 0.00 0.01 0.01 0.02 0.03 0.03 0.04 0.02 0.01 0.00 0.00 0.00 0.01 0.02 0.04 0.18 0.16 0.13 0.13 0.14 0.14 0.12 0.10 0.11 0.14 0.16 0.16 0.15 0.15 0.15 0.11 0.09 0.08 0.07 0.06 0.04 0.04 0.02 0.02
0.01 0.02 0.02 0.02 0.01 0.02 0.02 0.03 0.03 0.05 0.06 0.04 0.03 0.02 0.02 0.06 0.07 0.07 0.09 0.15 0.17 0.11 0.07 0.06 0.06 0.09 0.11 0.10 0.11 0.14 0.14 0.12 0.13 0.14 0.14 0.13 0.10 0.08 0.07 0.06 0.05 0.05 0.01
0.04 0.03 0.02 0.01 0.01 0.02 0.02 0.03 0.04 0.08 0.08 0.07 0.05 0.04 0.07 0.16 0.16 0.15 0.14 0.13 0.11 0.09 0.08 0.07 0.06 0.07 0.08 0.11 0.11 0.12 0.12 0.10 0.11 0.12 0.11 0.11 0.12 0.11 0.08 0.08 0.07 0.04 0.03
0.01 0.01 0.00 0.01 0.01 0.01 0.01 0.02 0.05 0.05 0.04 0.05 0.08 0.12 0.19 0.22 0.18 0.13 0.12 0.11 0.11 0.13 0.15 0.19 0.18 0.15 0.14 0.18 0.19 0.18 0.14 0.13 0.14 0.15 0.11 0.10 0.11 0.11 0.11 0.11 0.09 0.06 0.02
0.01 0.01 0.01 0.01 0.01 0.02 0.04 0.07 0.09 0.09 0.09 0.11 0.13 0.11 0.08 0.09 0.10 0.11 0.11 0.11 0.13 0.16 0.17 0.20 0.18 0.14 0.11 0.13 0.17 0.21 0.18 0.12 0.14 0.19 0.17 0.12 0.11 0.11 0.12 0.13 0.10 0.07 0.03
0.01 0.01 0.01 0.01 0.02 0.06 0.07 0.09 0.14 0.19 0.21 0.17 0.12 0.11 0.11 0.12 0.12 0.11 0.11 0.11 0.11 0.10 0.09 0.11 0.12 0.13 0.13 0.12 0.14 0.17 0.18 0.16 0.20 0.20 0.24 0.19 0.12 0.10 0.13 0.13 0.11 0.07 0.04
0.01 0.02 0.02 0.03 0.04 0.07 0.16 0.21 0.17 0.10 0.07 0.06 0.07 0.07 0.06 0.06 0.07 0.09 0.10 0.08 0.07 0.06 0.06 0.07 0.06 0.06 0.07 0.10 0.11 0.09 0.10 0.17 0.23 0.24 0.27 0.20 0.13 0.11 0.13 0.14 0.13 0.10 0.06
0.01 0.02 0.02 0.03 0.05 0.09 0.10 0.08 0.07 0.05 0.04 0.03 0.03 0.03 0.03 0.03 0.03 0.04 0.03 0.04 0.05 0.05 0.04 0.03 0.03 0.04 0.06 0.07 0.10 0.11 0.10 0.14 0.18 0.21 0.26 0.22 0.16 0.13 0.14 0.15 0.15 0.14 0.06